Wetterdaten: Dienstag, 22.09.2009
Datum Zeit Temp. Innen Temp. Aussen UV X Diff Temp. Feuchte Inne Feuchte Auss Sonnenschein Luftdruck Regen ab 0,1 Wind Sonnenschein Windben
22.09.2009 00:00 21,6 C 11,5 C 0,0 UV-I 0,0 C 56 % 85 % 0 % 1026,7 hPa 0,0 l/m 0,0 km/h (0 Bft) 0 min 0,0 km/h (0 Bft)
22.09.2009 00:02 21,6 C 11,4 C 0,0 UV-I 0,0 C 56 % 85 % 0 % 1026,7 hPa 0,0 l/m 0,0 km/h (0 Bft) 0 min 0,0 km/h (0 Bft)
22.09.2009 00:04 21,6 C 11,4 C 0,0 UV-I 0,0 C 56 % 85 % 0 % 1026,7 hPa 0,0 l/m 0,0 km/h (0 Bft) 0 min 0,0 km/h (0 Bft)
22.09.2009 00:06 21,6 C 11,5 C 0,0 UV-I 0,0 C 56 % 86 % 0 % 1026,7 hPa 0,0 l/m 0,0 km/h (0 Bft) 0 min 0,0 km/h (0 Bft)
22.09.2009 00:08 21,6 C 11,4 C 0,0 UV-I 0,0 C 56 % 86 % 0 % 1026,7 hPa 0,0 l/m 0,0 km/h (0 Bft) 0 min 0,0 km/h (0 Bft)
22.09.2009 00:10 21,6 C 11,3 C 0,0 UV-I 0,0 C 56 % 86 % 0 % 1026,7 hPa 0,0 l/m 0,0 km/h (0 Bft) 0 min 0,0 km/h (0 Bft)
22.09.2009 00:12 21,6 C 11,3 C 0,0 UV-I 0,0 C 56 % 86 % 0 % 1026,7 hPa 0,0 l/m 0,0 km/h (0 Bft) 0 min 0,0 km/h (0 Bft)
22.09.2009 00:14 21,6 C 11,3 C 0,0 UV-I 0,0 C 56 % 86 % 0 % 1026,7 hPa 0,0 l/m 0,0 km/h (0 Bft) 0 min 0,0 km/h (0 Bft)
22.09.2009 00:16 21,6 C 11,2 C 0,0 UV-I 0,0 C 56 % 86 % 0 % 1026,8 hPa 0,0 l/m 0,0 km/h (0 Bft) 0 min 0,0 km/h (0 Bft)
22.09.2009 00:18 21,6 C 11,2 C 0,0 UV-I 0,0 C 56 % 86 % 0 % 1026,8 hPa 0,0 l/m 0,0 km/h (0 Bft) 0 min 0,0 km/h (0 Bft)
22.09.2009 00:20 21,6 C 11,3 C 0,0 UV-I 0,0 C 56 % 86 % 0 % 1026,8 hPa 0,0 l/m 0,0 km/h (0 Bft) 0 min 0,0 km/h (0 Bft)
22.09.2009 00:22 21,6 C 11,2 C 0,0 UV-I 0,0 C 56 % 86 % 0 % 1026,8 hPa 0,0 l/m 0,0 km/h (0 Bft) 0 min 0,0 km/h (0 Bft)
22.09.2009 00:24 21,6 C 11,2 C 0,0 UV-I 0,0 C 56 % 86 % 0 % 1026,8 hPa 0,0 l/m 0,0 km/h (0 Bft) 0 min 0,0 km/h (0 Bft)
22.09.2009 00:26 21,6 C 11,2 C 0,0 UV-I 0,0 C 56 % 86 % 0 % 1026,8 hPa 0,0 l/m 0,0 km/h (0 Bft) 0 min 0,0 km/h (0 Bft)
22.09.2009 00:28 21,5 C 11,1 C 0,0 UV-I 0,0 C 56 % 86 % 0 % 1026,8 hPa 0,0 l/m 0,0 km/h (0 Bft) 0 min 0,0 km/h (0 Bft)
22.09.2009 00:30 21,6 C 11,1 C 0,0 UV-I 0,0 C 56 % 86 % 0 % 1026,8 hPa 0,0 l/m 0,0 km/h (0 Bft) 0 min 0,0 km/h (0 Bft)
22.09.2009 00:32 21,5 C 11,1 C 0,0 UV-I 0,0 C 56 % 87 % 0 % 1026,8 hPa 0,0 l/m 0,0 km/h (0 Bft) 0 min 0,0 km/h (0 Bft)
22.09.2009 00:34 21,5 C 11,0 C 0,0 UV-I 0,0 C 56 % 87 % 0 % 1026,8 hPa 0,0 l/m 0,0 km/h (0 Bft) 0 min 0,0 km/h (0 Bft)
22.09.2009 00:36 21,5 C 11,1 C 0,0 UV-I 0,0 C 56 % 87 % 0 % 1026,7 hPa 0,0 l/m 0,0 km/h (0 Bft) 0 min 0,0 km/h (0 Bft)
22.09.2009 00:38 21,5 C 11,1 C 0,0 UV-I 0,0 C 56 % 87 % 0 % 1026,7 hPa 0,0 l/m 0,0 km/h (0 Bft) 0 min 0,0 km/h (0 Bft)
22.09.2009 00:40 21,5 C 11,1 C 0,0 UV-I 0,0 C 56 % 87 % 0 % 1026,7 hPa 0,0 l/m 0,0 km/h (0 Bft) 0 min 0,0 km/h (0 Bft)
22.09.2009 00:42 21,5 C 10,9 C 0,0 UV-I 0,0 C 56 % 87 % 0 % 1026,7 hPa 0,0 l/m 0,0 km/h (0 Bft) 0 min 0,0 km/h (0 Bft)
22.09.2009 00:44 21,5 C 11,0 C 0,0 UV-I 0,0 C 56 % 87 % 0 % 1026,7 hPa 0,0 l/m 0,0 km/h (0 Bft) 0 min 0,0 km/h (0 Bft)
22.09.2009 00:46 21,5 C 10,9 C 0,0 UV-I 0,0 C 56 % 87 % 0 % 1026,7 hPa 0,0 l/m 0,0 km/h (0 Bft) 0 min 0,0 km/h (0 Bft)
22.09.2009 00:48 21,5 C 10,9 C 0,0 UV-I 0,0 C 56 % 87 % 0 % 1026,7 hPa 0,0 l/m 0,0 km/h (0 Bft) 0 min 0,0 km/h (0 Bft)
22.09.2009 00:50 21,5 C 10,9 C 0,0 UV-I 0,0 C 56 % 87 % 0 % 1026,7 hPa 0,0 l/m 0,0 km/h (0 Bft) 0 min 0,0 km/h (0 Bft)
22.09.2009 00:52 21,5 C 10,9 C 0,0 UV-I 0,0 C 56 % 87 % 0 % 1026,7 hPa 0,0 l/m 0,0 km/h (0 Bft) 0 min 0,0 km/h (0 Bft)
22.09.2009 00:54 21,5 C 10,8 C 0,0 UV-I 0,0 C 56 % 87 % 0 % 1026,7 hPa 0,0 l/m 0,0 km/h (0 Bft) 0 min 0,0 km/h (0 Bft)
22.09.2009 00:56 21,5 C 10,8 C 0,0 UV-I 0,0 C 56 % 87 % 0 % 1026,9 hPa 0,0 l/m 0,0 km/h (0 Bft) 0 min 0,0 km/h (0 Bft)
22.09.2009 00:58 21,4 C 10,8 C 0,0 UV-I 0,0 C 56 % 87 % 0 % 1026,9 hPa 0,0 l/m 0,0 km/h (0 Bft) 0 min 0,0 km/h (0 Bft)
22.09.2009 01:00 21,4 C 10,8 C 0,0 UV-I 0,0 C 56 % 87 % 0 % 1026,9 hPa 0,0 l/m 0,0 km/h (0 Bft) 0 min 0,0 km/h (0 Bft)
22.09.2009 01:02 21,4 C 10,8 C 0,0 UV-I 0,0 C 56 % 87 % 0 % 1026,9 hPa 0,0 l/m 0,0 km/h (0 Bft) 0 min 0,0 km/h (0 Bft)
22.09.2009 01:04 21,4 C 10,8 C 0,0 UV-I 0,0 C 56 % 87 % 0 % 1026,9 hPa 0,0 l/m 0,0 km/h (0 Bft) 0 min 0,0 km/h (0 Bft)
22.09.2009 01:06 21,4 C 10,7 C 0,0 UV-I 0,0 C 56 % 87 % 0 % 1026,9 hPa 0,0 l/m 0,0 km/h (0 Bft) 0 min 0,0 km/h (0 Bft)
22.09.2009 01:08 21,4 C 10,7 C 0,0 UV-I 0,0 C 56 % 87 % 0 % 1026,9 hPa 0,0 l/m 0,0 km/h (0 Bft) 0 min 0,0 km/h (0 Bft)
22.09.2009 01:10 21,4 C 10,7 C 0,0 UV-I 0,0 C 56 % 87 % 0 % 1026,9 hPa 0,0 l/m 0,0 km/h (0 Bft) 0 min 0,0 km/h (0 Bft)
22.09.2009 01:12 21,4 C 10,7 C 0,0 UV-I 0,0 C 56 % 88 % 0 % 1026,9 hPa 0,0 l/m 0,0 km/h (0 Bft) 0 min 0,0 km/h (0 Bft)
22.09.2009 01:14 21,4 C 10,6 C 0,0 UV-I 0,0 C 56 % 88 % 0 % 1026,9 hPa 0,0 l/m 0,0 km/h (0 Bft) 0 min 0,0 km/h (0 Bft)
22.09.2009 01:16 21,4 C 10,7 C 0,0 UV-I 0,0 C 56 % 88 % 0 % 1027,1 hPa 0,0 l/m 0,0 km/h (0 Bft) 0 min 0,0 km/h (0 Bft)
22.09.2009 01:18 21,4 C 10,7 C 0,0 UV-I 0,0 C 56 % 88 % 0 % 1027,1 hPa 0,0 l/m 0,0 km/h (0 Bft) 0 min 0,0 km/h (0 Bft)
22.09.2009 01:20 21,4 C 10,6 C 0,0 UV-I 0,0 C 56 % 88 % 0 % 1027,1 hPa 0,0 l/m 0,0 km/h (0 Bft) 0 min 0,0 km/h (0 Bft)
22.09.2009 01:22 21,4 C 10,6 C 0,0 UV-I 0,0 C 56 % 88 % 0 % 1027,1 hPa 0,0 l/m 0,0 km/h (0 Bft) 0 min 0,0 km/h (0 Bft)
22.09.2009 01:24 21,2 C 10,5 C 0,0 UV-I 0,0 C 56 % 88 % 0 % 1027,1 hPa 0,0 l/m 0,0 km/h (0 Bft) 0 min 0,0 km/h (0 Bft)
22.09.2009 01:26 21,4 C 10,5 C 0,0 UV-I 0,0 C 56 % 88 % 0 % 1027,1 hPa 0,0 l/m 0,0 km/h (0 Bft) 0 min 0,0 km/h (0 Bft)
22.09.2009 01:28 21,2 C 10,5 C 0,0 UV-I 0,0 C 56 % 88 % 0 % 1027,1 hPa 0,0 l/m 0,0 km/h (0 Bft) 0 min 0,0 km/h (0 Bft)
22.09.2009 01:30 21,2 C 10,5 C 0,0 UV-I 0,0 C 56 % 88 % 0 % 1027,1 hPa 0,0 l/m 0,0 km/h (0 Bft) 0 min 0,0 km/h (0 Bft)
22.09.2009 01:32 21,2 C 10,4 C 0,0 UV-I 0,0 C 56 % 88 % 0 % 1027,1 hPa 0,0 l/m 0,0 km/h (0 Bft) 0 min 0,0 km/h (0 Bft)
22.09.2009 01:34 21,2 C 10,4 C 0,0 UV-I 0,0 C 56 % 88 % 0 % 1027,1 hPa 0,0 l/m 0,0 km/h (0 Bft) 0 min 0,0 km/h (0 Bft)
22.09.2009 01:36 21,2 C 10,4 C 0,0 UV-I 0,0 C 56 % 88 % 0 % 1026,7 hPa 0,0 l/m 0,0 km/h (0 Bft) 0 min 0,0 km/h (0 Bft)
22.09.2009 01:38 21,2 C 10,4 C 0,0 UV-I 0,0 C 56 % 88 % 0 % 1026,7 hPa 0,0 l/m 0,0 km/h (0 Bft) 0 min 0,0 km/h (0 Bft)
22.09.2009 01:40 21,2 C 10,5 C 0,0 UV-I 0,0 C 56 % 88 % 0 % 1026,7 hPa 0,0 l/m 0,0 km/h (0 Bft) 0 min 0,0 km/h (0 Bft)
22.09.2009 01:42 21,3 C 10,4 C 0,0 UV-I 0,0 C 56 % 88 % 0 % 1026,7 hPa 0,0 l/m 0,0 km/h (0 Bft) 0 min 0,0 km/h (0 Bft)
22.09.2009 01:44 21,3 C 10,4 C 0,0 UV-I 0,0 C 56 % 88 % 0 % 1026,7 hPa 0,0 l/m 0,0 km/h (0 Bft) 0 min 0,0 km/h (0 Bft)
22.09.2009 01:46 21,3 C 10,4 C 0,0 UV-I 0,0 C 56 % 88 % 0 % 1026,7 hPa 0,0 l/m 0,0 km/h (0 Bft) 0 min 0,0 km/h (0 Bft)
22.09.2009 01:48 21,3 C 10,3 C 0,0 UV-I 0,0 C 56 % 88 % 0 % 1026,7 hPa 0,0 l/m 0,0 km/h (0 Bft) 0 min 0,0 km/h (0 Bft)
22.09.2009 01:50 21,3 C 10,3 C 0,0 UV-I 0,0 C 56 % 88 % 0 % 1026,7 hPa 0,0 l/m 0,0 km/h (0 Bft) 0 min 0,0 km/h (0 Bft)
22.09.2009 01:52 21,3 C 10,3 C 0,0 UV-I 0,0 C 56 % 88 % 0 % 1026,7 hPa 0,0 l/m 0,0 km/h (0 Bft) 0 min 0,0 km/h (0 Bft)
22.09.2009 01:54 21,2 C 10,3 C 0,0 UV-I 0,0 C 56 % 88 % 0 % 1026,7 hPa 0,0 l/m 0,0 km/h (0 Bft) 0 min 0,0 km/h (0 Bft)
22.09.2009 01:56 21,3 C 10,3 C 0,0 UV-I 0,0 C 56 % 88 % 0 % 1026,6 hPa 0,0 l/m 0,0 km/h (0 Bft) 0 min 0,0 km/h (0 Bft)
22.09.2009 01:58 21,3 C 10,3 C 0,0 UV-I 0,0 C 56 % 88 % 0 % 1026,6 hPa 0,0 l/m 0,0 km/h (0 Bft) 0 min 0,0 km/h (0 Bft)
22.09.2009 02:02 21,2 C 10,3 C 0,0 UV-I 0,0 C 56 % 88 % 0 % 1026,6 hPa 0,0 l/m 0,0 km/h (0 Bft) 0 min 0,0 km/h (0 Bft)
22.09.2009 02:04 21,2 C 10,2 C 0,0 UV-I 0,0 C 56 % 88 % 0 % 1026,6 hPa 0,0 l/m 0,0 km/h (0 Bft) 0 min 0,0 km/h (0 Bft)
22.09.2009 02:06 21,2 C 10,2 C 0,0 UV-I 0,0 C 56 % 88 % 0 % 1026,6 hPa 0,0 l/m 0,0 km/h (0 Bft) 0 min 0,0 km/h (0 Bft)
22.09.2009 02:08 21,2 C 10,1 C 0,0 UV-I 0,0 C 56 % 88 % 0 % 1026,6 hPa 0,0 l/m 0,0 km/h (0 Bft) 0 min 0,0 km/h (0 Bft)
22.09.2009 02:10 21,2 C 10,1 C 0,0 UV-I 0,0 C 56 % 88 % 0 % 1026,6 hPa 0,0 l/m 0,0 km/h (0 Bft) 0 min 0,0 km/h (0 Bft)
22.09.2009 02:12 21,2 C 10,1 C 0,0 UV-I 0,0 C 56 % 88 % 0 % 1026,6 hPa 0,0 l/m 0,0 km/h (0 Bft) 0 min 0,0 km/h (0 Bft)
22.09.2009 02:14 21,2 C 10,1 C 0,0 UV-I 0,0 C 56 % 88 % 0 % 1026,6 hPa 0,0 l/m 0,0 km/h (0 Bft) 0 min 0,0 km/h (0 Bft)
22.09.2009 02:16 21,2 C 10,1 C 0,0 UV-I 0,0 C 56 % 88 % 0 % 1026,8 hPa 0,0 l/m 0,0 km/h (0 Bft) 0 min 0,0 km/h (0 Bft)
22.09.2009 02:18 21,2 C 10,1 C 0,0 UV-I 0,0 C 56 % 88 % 0 % 1026,8 hPa 0,0 l/m 0,0 km/h (0 Bft) 0 min 0,0 km/h (0 Bft)
22.09.2009 02:22 21,2 C 10,0 C 0,0 UV-I 0,0 C 56 % 88 % 0 % 1026,8 hPa 0,0 l/m 0,0 km/h (0 Bft) 0 min 0,0 km/h (0 Bft)
22.09.2009 02:24 21,2 C 10,0 C 0,0 UV-I 0,0 C 56 % 89 % 0 % 1026,8 hPa 0,0 l/m 0,0 km/h (0 Bft) 0 min 0,0 km/h (0 Bft)
22.09.2009 02:26 21,2 C 10,1 C 0,0 UV-I 0,0 C 56 % 89 % 0 % 1026,8 hPa 0,0 l/m 0,0 km/h (0 Bft) 0 min 0,0 km/h (0 Bft)
22.09.2009 02:28 21,2 C 10,1 C 0,0 UV-I 0,0 C 56 % 89 % 0 % 1026,8 hPa 0,0 l/m 0,0 km/h (0 Bft) 0 min 0,0 km/h (0 Bft)
22.09.2009 02:30 21,1 C 10,0 C 0,0 UV-I 0,0 C 56 % 89 % 0 % 1026,8 hPa 0,0 l/m 0,0 km/h (0 Bft) 0 min 0,0 km/h (0 Bft)
22.09.2009 02:32 21,2 C 10,0 C 0,0 UV-I 0,0 C 56 % 89 % 0 % 1026,8 hPa 0,0 l/m 0,0 km/h (0 Bft) 0 min 0,0 km/h (0 Bft)
22.09.2009 02:34 21,2 C 9,9 C 0,0 UV-I 0,0 C 56 % 89 % 0 % 1026,8 hPa 0,0 l/m 0,0 km/h (0 Bft) 0 min 0,0 km/h (0 Bft)
22.09.2009 02:36 21,1 C 10,0 C 0,0 UV-I 0,0 C 56 % 89 % 0 % 1026,6 hPa 0,0 l/m 0,0 km/h (0 Bft) 0 min 0,0 km/h (0 Bft)
22.09.2009 02:38 21,2 C 9,9 C 0,0 UV-I 0,0 C 56 % 89 % 0 % 1026,6 hPa 0,0 l/m 0,0 km/h (0 Bft) 0 min 0,0 km/h (0 Bft)
22.09.2009 02:40 21,1 C 9,9 C 0,0 UV-I 0,0 C 56 % 89 % 0 % 1026,6 hPa 0,0 l/m 0,0 km/h (0 Bft) 0 min 0,0 km/h (0 Bft)
22.09.2009 02:42 21,1 C 9,9 C 0,0 UV-I 0,0 C 56 % 89 % 0 % 1026,6 hPa 0,0 l/m 0,0 km/h (0 Bft) 0 min 0,0 km/h (0 Bft)
22.09.2009 02:44 21,1 C 9,8 C 0,0 UV-I 0,0 C 56 % 89 % 0 % 1026,6 hPa 0,0 l/m 0,0 km/h (0 Bft) 0 min 0,0 km/h (0 Bft)
22.09.2009 02:46 21,1 C 9,9 C 0,0 UV-I 0,0 C 56 % 89 % 0 % 1026,6 hPa 0,0 l/m 0,0 km/h (0 Bft) 0 min 0,0 km/h (0 Bft)
22.09.2009 02:48 21,1 C 9,9 C 0,0 UV-I 0,0 C 56 % 89 % 0 % 1026,6 hPa 0,0 l/m 0,0 km/h (0 Bft) 0 min 0,0 km/h (0 Bft)
22.09.2009 02:50 21,1 C 9,9 C 0,0 UV-I 0,0 C 56 % 89 % 0 % 1026,6 hPa 0,0 l/m 0,0 km/h (0 Bft) 0 min 0,0 km/h (0 Bft)
22.09.2009 02:52 21,1 C 9,9 C 0,0 UV-I 0,0 C 56 % 89 % 0 % 1026,6 hPa 0,0 l/m 0,0 km/h (0 Bft) 0 min 0,0 km/h (0 Bft)
22.09.2009 02:54 21,1 C 9,8 C 0,0 UV-I 0,0 C 56 % 89 % 0 % 1026,6 hPa 0,0 l/m 0,0 km/h (0 Bft) 0 min 0,0 km/h (0 Bft)
22.09.2009 02:56 21,1 C 9,9 C 0,0 UV-I 0,0 C 56 % 89 % 0 % 1026,6 hPa 0,0 l/m 0,0 km/h (0 Bft) 0 min 0,0 km/h (0 Bft)
22.09.2009 02:58 21,1 C 9,8 C 0,0 UV-I 0,0 C 56 % 89 % 0 % 1026,6 hPa 0,0 l/m 0,0 km/h (0 Bft) 0 min 0,0 km/h (0 Bft)
22.09.2009 03:00 21,1 C 9,8 C 0,0 UV-I 0,0 C 56 % 89 % 0 % 1026,6 hPa 0,0 l/m 0,0 km/h (0 Bft) 0 min 0,0 km/h (0 Bft)
22.09.2009 03:02 21,1 C 9,7 C 0,0 UV-I 0,0 C 56 % 89 % 0 % 1026,6 hPa 0,0 l/m 0,0 km/h (0 Bft) 0 min 0,0 km/h (0 Bft)
22.09.2009 03:04 21,0 C 9,7 C 0,0 UV-I 0,0 C 56 % 89 % 0 % 1026,6 hPa 0,0 l/m 0,0 km/h (0 Bft) 0 min 0,0 km/h (0 Bft)
22.09.2009 03:06 21,1 C 9,7 C 0,0 UV-I 0,0 C 56 % 89 % 0 % 1026,6 hPa 0,0 l/m 0,0 km/h (0 Bft) 0 min 0,0 km/h (0 Bft)
22.09.2009 03:08 21,1 C 9,7 C 0,0 UV-I 0,0 C 56 % 89 % 0 % 1026,6 hPa 0,0 l/m 0,0 km/h (0 Bft) 0 min 0,0 km/h (0 Bft)
22.09.2009 03:10 21,0 C 9,7 C 0,0 UV-I 0,0 C 56 % 89 % 0 % 1026,6 hPa 0,0 l/m 0,0 km/h (0 Bft) 0 min 0,0 km/h (0 Bft)
22.09.2009 03:12 21,0 C 9,7 C 0,0 UV-I 0,0 C 56 % 89 % 0 % 1026,6 hPa 0,0 l/m 0,0 km/h (0 Bft) 0 min 0,0 km/h (0 Bft)
22.09.2009 03:14 21,0 C 9,7 C 0,0 UV-I 0,0 C 56 % 89 % 0 % 1026,6 hPa 0,0 l/m 0,0 km/h (0 Bft) 0 min 0,0 km/h (0 Bft)
22.09.2009 03:16 21,0 C 9,7 C 0,0 UV-I 0,0 C 56 % 89 % 0 % 1026,6 hPa 0,0 l/m 0,0 km/h (0 Bft) 0 min 0,0 km/h (0 Bft)
22.09.2009 03:18 21,0 C 9,6 C 0,0 UV-I 0,0 C 56 % 89 % 0 % 1026,6 hPa 0,0 l/m 0,0 km/h (0 Bft) 0 min 0,0 km/h (0 Bft)
22.09.2009 03:22 21,0 C 9,6 C 0,0 UV-I 0,0 C 56 % 90 % 0 % 1026,6 hPa 0,0 l/m 0,0 km/h (0 Bft) 0 min 0,0 km/h (0 Bft)
22.09.2009 03:24 21,0 C 9,7 C 0,0 UV-I 0,0 C 56 % 90 % 0 % 1026,6 hPa 0,0 l/m 0,0 km/h (0 Bft) 0 min 0,0 km/h (0 Bft)
22.09.2009 03:26 21,0 C 9,6 C 0,0 UV-I 0,0 C 56 % 90 % 0 % 1026,6 hPa 0,0 l/m 0,0 km/h (0 Bft) 0 min 0,0 km/h (0 Bft)
22.09.2009 03:28 21,0 C 9,7 C 0,0 UV-I 0,0 C 56 % 90 % 0 % 1026,6 hPa 0,0 l/m 0,0 km/h (0 Bft) 0 min 0,0 km/h (0 Bft)
22.09.2009 03:30 21,0 C 9,7 C 0,0 UV-I 0,0 C 56 % 90 % 0 % 1026,6 hPa 0,0 l/m 0,0 km/h (0 Bft) 0 min 0,0 km/h (0 Bft)
22.09.2009 03:32 21,0 C 9,7 C 0,0 UV-I 0,0 C 56 % 90 % 0 % 1026,6 hPa 0,0 l/m 0,0 km/h (0 Bft) 0 min 0,0 km/h (0 Bft)
22.09.2009 03:34 21,0 C 9,7 C 0,0 UV-I 0,0 C 56 % 90 % 0 % 1026,6 hPa 0,0 l/m 0,0 km/h (0 Bft) 0 min 0,0 km/h (0 Bft)
22.09.2009 03:36 21,0 C 9,6 C 0,0 UV-I 0,0 C 56 % 90 % 0 % 1026,4 hPa 0,0 l/m 0,0 km/h (0 Bft) 0 min 0,0 km/h (0 Bft)
22.09.2009 03:38 20,9 C 9,6 C 0,0 UV-I 0,0 C 56 % 90 % 0 % 1026,4 hPa 0,0 l/m 0,0 km/h (0 Bft) 0 min 0,0 km/h (0 Bft)
22.09.2009 03:40 21,0 C 9,6 C 0,0 UV-I 0,0 C 56 % 90 % 0 % 1026,4 hPa 0,0 l/m 0,0 km/h (0 Bft) 0 min 0,0 km/h (0 Bft)
22.09.2009 03:42 20,9 C 9,6 C 0,0 UV-I 0,0 C 56 % 90 % 0 % 1026,4 hPa 0,0 l/m 0,0 km/h (0 Bft) 0 min 0,0 km/h (0 Bft)
22.09.2009 03:46 20,9 C 9,6 C 0,0 UV-I 0,0 C 56 % 90 % 0 % 1026,4 hPa 0,0 l/m 0,0 km/h (0 Bft) 0 min 0,0 km/h (0 Bft)
22.09.2009 03:48 20,9 C 9,6 C 0,0 UV-I 0,0 C 56 % 90 % 0 % 1026,4 hPa 0,0 l/m 0,0 km/h (0 Bft) 0 min 0,0 km/h (0 Bft)
22.09.2009 03:50 20,9 C 9,6 C 0,0 UV-I 0,0 C 56 % 90 % 0 % 1026,4 hPa 0,0 l/m 0,0 km/h (0 Bft) 0 min 0,0 km/h (0 Bft)
22.09.2009 03:52 20,9 C 9,6 C 0,0 UV-I 0,0 C 56 % 90 % 0 % 1026,4 hPa 0,0 l/m 0,0 km/h (0 Bft) 0 min 0,0 km/h (0 Bft)
22.09.2009 03:54 20,9 C 9,6 C 0,0 UV-I 0,0 C 56 % 90 % 0 % 1026,4 hPa 0,0 l/m 0,0 km/h (0 Bft) 0 min 0,0 km/h (0 Bft)
22.09.2009 03:56 20,9 C 9,6 C 0,0 UV-I 0,0 C 56 % 90 % 0 % 1026,1 hPa 0,0 l/m 0,0 km/h (0 Bft) 0 min 0,0 km/h (0 Bft)
22.09.2009 03:58 20,9 C 9,6 C 0,0 UV-I 0,0 C 56 % 90 % 0 % 1026,1 hPa 0,0 l/m 0,0 km/h (0 Bft) 0 min 2,9 km/h (1 Bft)
22.09.2009 04:00 20,9 C 9,6 C 0,0 UV-I 0,0 C 56 % 90 % 0 % 1026,1 hPa 0,0 l/m 0,2 km/h (0 Bft) 0 min 0,0 km/h (0 Bft)
22.09.2009 04:02 20,9 C 9,6 C 0,0 UV-I 0,0 C 56 % 90 % 0 % 1026,1 hPa 0,0 l/m 0,2 km/h (0 Bft) 0 min 0,0 km/h (0 Bft)
22.09.2009 04:06 20,9 C 9,6 C 0,0 UV-I 0,0 C 56 % 90 % 0 % 1026,1 hPa 0,0 l/m 0,5 km/h (0 Bft) 0 min 0,0 km/h (0 Bft)
22.09.2009 04:08 20,8 C 9,6 C 0,0 UV-I 0,0 C 56 % 90 % 0 % 1026,1 hPa 0,0 l/m 0,2 km/h (0 Bft) 0 min 0,0 km/h (0 Bft)
22.09.2009 04:10 20,8 C 9,6 C 0,0 UV-I 0,0 C 56 % 90 % 0 % 1026,1 hPa 0,0 l/m 0,2 km/h (0 Bft) 0 min 3,4 km/h (1 Bft)
22.09.2009 04:13 20,8 C 9,5 C 0,0 UV-I 0,0 C 56 % 90 % 0 % 1026,1 hPa 0,0 l/m 0,0 km/h (0 Bft) 0 min 0,0 km/h (0 Bft)
22.09.2009 04:15 20,8 C 9,5 C 0,0 UV-I 0,0 C 56 % 90 % 0 % 1026,3 hPa 0,0 l/m 0,0 km/h (0 Bft) 0 min 0,0 km/h (0 Bft)
22.09.2009 04:16 20,8 C 9,5 C 0,0 UV-I 0,0 C 56 % 90 % 0 % 1026,3 hPa 0,0 l/m 0,0 km/h (0 Bft) 0 min 0,0 km/h (0 Bft)
22.09.2009 04:18 20,8 C 9,5 C 0,0 UV-I 0,0 C 56 % 91 % 0 % 1026,3 hPa 0,0 l/m 0,0 km/h (0 Bft) 0 min 0,0 km/h (0 Bft)
22.09.2009 04:20 20,8 C 9,5 C 0,0 UV-I 0,0 C 56 % 91 % 0 % 1026,3 hPa 0,0 l/m 0,0 km/h (0 Bft) 0 min 0,0 km/h (0 Bft)
22.09.2009 04:22 20,8 C 9,5 C 0,0 UV-I 0,0 C 56 % 91 % 0 % 1026,3 hPa 0,0 l/m 0,0 km/h (0 Bft) 0 min 0,0 km/h (0 Bft)
22.09.2009 04:24 20,8 C 9,6 C 0,0 UV-I 0,0 C 56 % 91 % 0 % 1026,3 hPa 0,0 l/m 0,0 km/h (0 Bft) 0 min 0,0 km/h (0 Bft)
22.09.2009 04:26 20,8 C 9,6 C 0,0 UV-I 0,0 C 56 % 91 % 0 % 1026,3 hPa 0,0 l/m 0,0 km/h (0 Bft) 0 min 0,0 km/h (0 Bft)
22.09.2009 04:28 20,8 C 9,5 C 0,0 UV-I 0,0 C 56 % 91 % 0 % 1026,3 hPa 0,0 l/m 0,0 km/h (0 Bft) 0 min 0,0 km/h (0 Bft)
22.09.2009 04:30 20,8 C 9,5 C 0,0 UV-I 0,0 C 56 % 91 % 0 % 1026,3 hPa 0,0 l/m 0,0 km/h (0 Bft) 0 min 2,9 km/h (1 Bft)
22.09.2009 04:32 20,8 C 9,5 C 0,0 UV-I 0,0 C 56 % 91 % 0 % 1026,3 hPa 0,0 l/m 0,0 km/h (0 Bft) 0 min 0,0 km/h (0 Bft)
22.09.2009 04:34 20,8 C 9,5 C 0,0 UV-I 0,0 C 56 % 91 % 0 % 1026,3 hPa 0,0 l/m 0,2 km/h (0 Bft) 0 min 0,0 km/h (0 Bft)
22.09.2009 04:36 20,8 C 9,5 C 0,0 UV-I 0,0 C 56 % 91 % 0 % 1026,0 hPa 0,0 l/m 0,2 km/h (0 Bft) 0 min 0,0 km/h (0 Bft)
22.09.2009 04:38 20,8 C 9,5 C 0,0 UV-I 0,0 C 56 % 91 % 0 % 1026,0 hPa 0,0 l/m 0,2 km/h (0 Bft) 0 min 2,4 km/h (1 Bft)
22.09.2009 04:40 20,8 C 9,5 C 0,0 UV-I 0,0 C 56 % 91 % 0 % 1026,0 hPa 0,0 l/m 0,2 km/h (0 Bft) 0 min 0,0 km/h (0 Bft)
22.09.2009 04:42 20,8 C 9,6 C 0,0 UV-I 0,0 C 56 % 91 % 0 % 1026,0 hPa 0,0 l/m 0,5 km/h (0 Bft) 0 min 0,0 km/h (0 Bft)
22.09.2009 04:44 20,8 C 9,5 C 0,0 UV-I 0,0 C 56 % 91 % 0 % 1026,0 hPa 0,0 l/m 0,5 km/h (0 Bft) 0 min 4,3 km/h (1 Bft)
22.09.2009 04:46 20,8 C 9,6 C 0,0 UV-I 0,0 C 56 % 91 % 0 % 1026,0 hPa 0,0 l/m 0,7 km/h (0 Bft) 0 min 0,0 km/h (0 Bft)
22.09.2009 04:48 20,8 C 9,6 C 0,0 UV-I 0,0 C 56 % 91 % 0 % 1026,0 hPa 0,0 l/m 1,0 km/h (0 Bft) 0 min 2,4 km/h (1 Bft)
22.09.2009 04:50 20,8 C 9,6 C 0,0 UV-I 0,1 C 56 % 91 % 0 % 1026,0 hPa 0,0 l/m 1,0 km/h (0 Bft) 0 min 4,3 km/h (1 Bft)
22.09.2009 04:52 20,8 C 9,6 C 0,0 UV-I 0,1 C 56 % 91 % 0 % 1026,0 hPa 0,0 l/m 1,0 km/h (0 Bft) 0 min 0,0 km/h (0 Bft)
22.09.2009 04:54 20,8 C 9,6 C 0,0 UV-I 0,1 C 56 % 91 % 0 % 1026,0 hPa 0,0 l/m 1,2 km/h (1 Bft) 0 min 2,9 km/h (1 Bft)
22.09.2009 04:56 20,8 C 9,6 C 0,0 UV-I 0,1 C 56 % 91 % 0 % 1026,0 hPa 0,0 l/m 1,2 km/h (1 Bft) 0 min 3,1 km/h (1 Bft)
22.09.2009 04:58 20,8 C 9,6 C 0,0 UV-I 0,1 C 56 % 91 % 0 % 1026,0 hPa 0,0 l/m 1,2 km/h (1 Bft) 0 min 0,0 km/h (0 Bft)
22.09.2009 05:00 20,7 C 9,7 C 0,0 UV-I 0,0 C 56 % 91 % 0 % 1026,0 hPa 0,0 l/m 1,0 km/h (0 Bft) 0 min 0,0 km/h (0 Bft)
22.09.2009 05:02 20,8 C 9,6 C 0,0 UV-I 0,1 C 56 % 91 % 0 % 1026,0 hPa 0,0 l/m 1,0 km/h (0 Bft) 0 min 0,0 km/h (0 Bft)
22.09.2009 05:04 20,7 C 9,7 C 0,0 UV-I 0,0 C 56 % 91 % 0 % 1026,0 hPa 0,0 l/m 0,7 km/h (0 Bft) 0 min 2,4 km/h (1 Bft)
22.09.2009 05:06 20,7 C 9,6 C 0,0 UV-I 0,1 C 56 % 91 % 0 % 1026,0 hPa 0,0 l/m 0,5 km/h (0 Bft) 0 min 0,0 km/h (0 Bft)
22.09.2009 05:08 20,7 C 9,7 C 0,0 UV-I 0,0 C 56 % 91 % 0 % 1026,0 hPa 0,0 l/m 0,5 km/h (0 Bft) 0 min 2,6 km/h (1 Bft)
22.09.2009 05:10 20,7 C 9,6 C 0,0 UV-I 0,1 C 56 % 91 % 0 % 1026,0 hPa 0,0 l/m 0,5 km/h (0 Bft) 0 min 0,0 km/h (0 Bft)
22.09.2009 05:12 20,7 C 9,7 C 0,0 UV-I 0,0 C 56 % 91 % 0 % 1026,0 hPa 0,0 l/m 0,7 km/h (0 Bft) 0 min 3,1 km/h (1 Bft)
22.09.2009 05:14 20,7 C 9,7 C 0,0 UV-I 0,0 C 56 % 91 % 0 % 1026,0 hPa 0,0 l/m 0,7 km/h (0 Bft) 0 min 2,4 km/h (1 Bft)
22.09.2009 05:16 20,7 C 9,6 C 0,0 UV-I 0,1 C 56 % 91 % 0 % 1026,1 hPa 0,0 l/m 0,7 km/h (0 Bft) 0 min 0,0 km/h (0 Bft)
22.09.2009 05:18 20,7 C 9,7 C 0,0 UV-I 0,0 C 56 % 91 % 0 % 1026,1 hPa 0,0 l/m 1,0 km/h (0 Bft) 0 min 2,4 km/h (1 Bft)
22.09.2009 05:20 20,7 C 9,7 C 0,0 UV-I 0,0 C 56 % 91 % 0 % 1026,1 hPa 0,0 l/m 0,7 km/h (0 Bft) 0 min 0,0 km/h (0 Bft)
22.09.2009 05:22 20,7 C 9,6 C 0,0 UV-I 0,1 C 56 % 91 % 0 % 1026,1 hPa 0,0 l/m 0,7 km/h (0 Bft) 0 min 2,6 km/h (1 Bft)
22.09.2009 05:24 20,7 C 9,7 C 0,0 UV-I 0,0 C 56 % 91 % 0 % 1026,1 hPa 0,0 l/m 1,0 km/h (0 Bft) 0 min 0,0 km/h (0 Bft)
22.09.2009 05:26 20,7 C 9,7 C 0,0 UV-I 0,0 C 56 % 91 % 0 % 1026,1 hPa 0,0 l/m 1,0 km/h (0 Bft) 0 min 3,1 km/h (1 Bft)
22.09.2009 05:28 20,7 C 9,6 C 0,0 UV-I 0,1 C 56 % 91 % 0 % 1026,1 hPa 0,0 l/m 1,0 km/h (0 Bft) 0 min 2,4 km/h (1 Bft)
22.09.2009 05:30 20,7 C 9,6 C 0,0 UV-I 0,1 C 56 % 91 % 0 % 1026,1 hPa 0,0 l/m 1,0 km/h (0 Bft) 0 min 0,0 km/h (0 Bft)
22.09.2009 05:32 20,7 C 9,6 C 0,0 UV-I 0,1 C 56 % 91 % 0 % 1026,1 hPa 0,0 l/m 1,0 km/h (0 Bft) 0 min 0,0 km/h (0 Bft)
22.09.2009 05:34 20,6 C 9,7 C 0,0 UV-I 0,0 C 56 % 91 % 0 % 1026,1 hPa 0,0 l/m 0,5 km/h (0 Bft) 0 min 0,0 km/h (0 Bft)
22.09.2009 05:36 20,6 C 9,7 C 0,0 UV-I 0,0 C 56 % 91 % 0 % 1025,9 hPa 0,0 l/m 0,5 km/h (0 Bft) 0 min 0,0 km/h (0 Bft)
22.09.2009 05:38 20,6 C 9,6 C 0,0 UV-I 0,0 C 56 % 91 % 0 % 1025,9 hPa 0,0 l/m 0,2 km/h (0 Bft) 0 min 0,0 km/h (0 Bft)
22.09.2009 05:40 20,7 C 9,6 C 0,0 UV-I 0,0 C 56 % 91 % 0 % 1025,9 hPa 0,0 l/m 0,0 km/h (0 Bft) 0 min 0,0 km/h (0 Bft)
22.09.2009 05:42 20,6 C 9,7 C 0,0 UV-I 0,0 C 56 % 91 % 0 % 1025,9 hPa 0,0 l/m 0,0 km/h (0 Bft) 0 min 2,6 km/h (1 Bft)
22.09.2009 05:44 20,6 C 9,6 C 0,0 UV-I 0,0 C 56 % 91 % 0 % 1025,9 hPa 0,0 l/m 0,5 km/h (0 Bft) 0 min 3,6 km/h (1 Bft)
22.09.2009 05:46 20,6 C 9,6 C 0,0 UV-I 0,0 C 55 % 91 % 0 % 1025,9 hPa 0,0 l/m 1,0 km/h (0 Bft) 0 min 4,3 km/h (1 Bft)
22.09.2009 05:48 20,6 C 9,6 C 0,0 UV-I 0,0 C 55 % 91 % 0 % 1025,9 hPa 0,0 l/m 1,2 km/h (1 Bft) 0 min 2,6 km/h (1 Bft)
22.09.2009 05:50 20,6 C 9,7 C 0,0 UV-I 0,0 C 55 % 91 % 0 % 1025,9 hPa 0,0 l/m 1,2 km/h (1 Bft) 0 min 0,0 km/h (0 Bft)
22.09.2009 05:52 20,6 C 9,7 C 0,0 UV-I 0,0 C 55 % 91 % 0 % 1025,9 hPa 0,0 l/m 1,2 km/h (1 Bft) 0 min 0,0 km/h (0 Bft)
22.09.2009 05:54 20,6 C 9,7 C 0,0 UV-I 0,0 C 56 % 91 % 0 % 1025,9 hPa 0,0 l/m 1,0 km/h (0 Bft) 0 min 0,0 km/h (0 Bft)
22.09.2009 05:56 20,6 C 9,6 C 0,0 UV-I 0,0 C 55 % 91 % 0 % 1025,8 hPa 0,0 l/m 0,5 km/h (0 Bft) 0 min 0,0 km/h (0 Bft)
22.09.2009 05:58 20,6 C 9,6 C 0,0 UV-I 0,0 C 56 % 91 % 0 % 1025,8 hPa 0,0 l/m 0,0 km/h (0 Bft) 0 min 0,0 km/h (0 Bft)
22.09.2009 06:00 20,6 C 9,6 C 0,0 UV-I 0,0 C 55 % 91 % 0 % 1025,8 hPa 0,0 l/m 0,0 km/h (0 Bft) 0 min 0,0 km/h (0 Bft)
22.09.2009 06:02 20,6 C 9,6 C 0,0 UV-I 0,0 C 55 % 91 % 0 % 1025,8 hPa 0,0 l/m 0,0 km/h (0 Bft) 0 min 0,0 km/h (0 Bft)
22.09.2009 06:04 20,6 C 9,6 C 0,0 UV-I 0,0 C 56 % 91 % 0 % 1025,8 hPa 0,0 l/m 0,0 km/h (0 Bft) 0 min 0,0 km/h (0 Bft)
22.09.2009 06:06 20,6 C 9,6 C 0,0 UV-I 0,0 C 55 % 91 % 0 % 1025,8 hPa 0,0 l/m 0,0 km/h (0 Bft) 0 min 0,0 km/h (0 Bft)
22.09.2009 06:08 20,6 C 9,6 C 0,0 UV-I 0,0 C 56 % 91 % 0 % 1025,8 hPa 0,0 l/m 0,0 km/h (0 Bft) 0 min 0,0 km/h (0 Bft)
22.09.2009 06:10 20,6 C 9,7 C 0,0 UV-I 0,0 C 55 % 91 % 0 % 1025,8 hPa 0,0 l/m 0,0 km/h (0 Bft) 0 min 0,0 km/h (0 Bft)
22.09.2009 06:12 20,6 C 9,6 C 0,0 UV-I 0,0 C 56 % 91 % 0 % 1025,8 hPa 0,0 l/m 0,0 km/h (0 Bft) 0 min 0,0 km/h (0 Bft)
22.09.2009 06:14 20,6 C 9,6 C 0,0 UV-I 0,0 C 55 % 91 % 0 % 1025,8 hPa 0,0 l/m 0,0 km/h (0 Bft) 0 min 0,0 km/h (0 Bft)
22.09.2009 06:16 20,6 C 9,5 C 0,0 UV-I 0,0 C 55 % 91 % 0 % 1025,9 hPa 0,0 l/m 0,0 km/h (0 Bft) 0 min 0,0 km/h (0 Bft)
22.09.2009 06:18 20,6 C 9,5 C 0,0 UV-I 0,0 C 55 % 91 % 0 % 1025,9 hPa 0,0 l/m 0,0 km/h (0 Bft) 0 min 0,0 km/h (0 Bft)
22.09.2009 06:20 20,6 C 9,5 C 0,0 UV-I 0,0 C 55 % 91 % 0 % 1025,9 hPa 0,0 l/m 0,0 km/h (0 Bft) 0 min 2,6 km/h (1 Bft)
22.09.2009 06:22 20,5 C 9,5 C 0,0 UV-I 0,0 C 55 % 91 % 0 % 1025,9 hPa 0,0 l/m 0,0 km/h (0 Bft) 0 min 0,0 km/h (0 Bft)
22.09.2009 06:24 20,5 C 9,5 C 0,0 UV-I 0,0 C 55 % 91 % 0 % 1025,9 hPa 0,0 l/m 0,0 km/h (0 Bft) 0 min 0,0 km/h (0 Bft)
22.09.2009 06:26 20,5 C 9,5 C 0,0 UV-I 0,0 C 55 % 91 % 0 % 1025,9 hPa 0,0 l/m 0,2 km/h (0 Bft) 0 min 2,4 km/h (1 Bft)
22.09.2009 06:28 20,5 C 9,5 C 0,0 UV-I 0,0 C 55 % 91 % 0 % 1025,9 hPa 0,0 l/m 0,2 km/h (0 Bft) 0 min 3,4 km/h (1 Bft)
22.09.2009 06:30 20,5 C 9,5 C 0,0 UV-I 0,0 C 55 % 91 % 0 % 1025,9 hPa 0,0 l/m 0,5 km/h (0 Bft) 0 min 4,6 km/h (1 Bft)
22.09.2009 06:32 20,5 C 9,5 C 0,0 UV-I 0,0 C 55 % 91 % 0 % 1025,9 hPa 0,0 l/m 0,5 km/h (0 Bft) 0 min 0,0 km/h (0 Bft)
22.09.2009 06:34 20,5 C 9,5 C 0,0 UV-I 0,0 C 55 % 91 % 0 % 1025,9 hPa 0,0 l/m 0,7 km/h (0 Bft) 0 min 2,4 km/h (1 Bft)
22.09.2009 06:36 20,5 C 9,5 C 0,0 UV-I 0,0 C 55 % 91 % 0 % 1025,8 hPa 0,0 l/m 0,7 km/h (0 Bft) 0 min 0,0 km/h (0 Bft)
22.09.2009 06:38 20,5 C 9,5 C 0,0 UV-I 0,0 C 55 % 91 % 0 % 1025,8 hPa 0,0 l/m 0,7 km/h (0 Bft) 0 min 0,0 km/h (0 Bft)
22.09.2009 06:40 20,4 C 9,5 C 0,0 UV-I 0,0 C 55 % 91 % 0 % 1025,8 hPa 0,0 l/m 0,7 km/h (0 Bft) 0 min 0,0 km/h (0 Bft)
22.09.2009 06:42 20,4 C 9,5 C 0,0 UV-I 0,0 C 55 % 91 % 0 % 1025,8 hPa 0,0 l/m 0,7 km/h (0 Bft) 0 min 0,0 km/h (0 Bft)
22.09.2009 06:44 20,5 C 9,5 C 0,0 UV-I 0,0 C 55 % 91 % 0 % 1025,8 hPa 0,0 l/m 0,5 km/h (0 Bft) 0 min 0,0 km/h (0 Bft)
22.09.2009 06:46 20,5 C 9,5 C 0,0 UV-I 0,0 C 55 % 91 % 0 % 1025,8 hPa 0,0 l/m 0,2 km/h (0 Bft) 0 min 0,0 km/h (0 Bft)
22.09.2009 06:48 20,4 C 9,4 C 0,0 UV-I 0,0 C 55 % 91 % 0 % 1025,8 hPa 0,0 l/m 0,2 km/h (0 Bft) 0 min 0,0 km/h (0 Bft)
22.09.2009 06:50 20,4 C 9,5 C 0,0 UV-I 0,0 C 55 % 91 % 0 % 1025,8 hPa 0,0 l/m 0,0 km/h (0 Bft) 0 min 0,0 km/h (0 Bft)
22.09.2009 06:52 20,4 C 9,4 C 0,0 UV-I 0,0 C 55 % 91 % 0 % 1025,8 hPa 0,0 l/m 0,0 km/h (0 Bft) 0 min 0,0 km/h (0 Bft)
22.09.2009 06:54 20,4 C 9,4 C 0,0 UV-I 0,0 C 55 % 91 % 0 % 1025,8 hPa 0,0 l/m 0,0 km/h (0 Bft) 0 min 0,0 km/h (0 Bft)
22.09.2009 06:56 20,4 C 9,5 C 0,0 UV-I 0,0 C 55 % 91 % 0 % 1025,7 hPa 0,0 l/m 0,0 km/h (0 Bft) 0 min 0,0 km/h (0 Bft)
22.09.2009 06:58 20,4 C 9,5 C 0,0 UV-I 0,0 C 55 % 91 % 0 % 1025,7 hPa 0,0 l/m 0,0 km/h (0 Bft) 0 min 0,0 km/h (0 Bft)
22.09.2009 07:00 20,4 C 9,5 C 0,0 UV-I 0,0 C 55 % 91 % 0 % 1025,7 hPa 0,0 l/m 0,0 km/h (0 Bft) 0 min 0,0 km/h (0 Bft)
22.09.2009 07:02 20,4 C 9,5 C 0,0 UV-I 0,0 C 55 % 91 % 0 % 1025,7 hPa 0,0 l/m 0,0 km/h (0 Bft) 0 min 0,0 km/h (0 Bft)
22.09.2009 07:04 20,4 C 9,5 C 0,0 UV-I 0,0 C 55 % 91 % 0 % 1025,7 hPa 0,0 l/m 0,0 km/h (0 Bft) 0 min 0,0 km/h (0 Bft)
22.09.2009 07:06 20,4 C 9,5 C 0,0 UV-I 0,0 C 55 % 91 % 0 % 1025,7 hPa 0,0 l/m 0,0 km/h (0 Bft) 0 min 0,0 km/h (0 Bft)
22.09.2009 07:08 20,4 C 9,5 C 0,0 UV-I 0,0 C 55 % 91 % 0 % 1025,7 hPa 0,0 l/m 0,0 km/h (0 Bft) 0 min 0,0 km/h (0 Bft)
22.09.2009 07:10 20,4 C 9,3 C 0,0 UV-I 0,0 C 55 % 91 % 0 % 1025,7 hPa 0,0 l/m 0,0 km/h (0 Bft) 0 min 0,0 km/h (0 Bft)
22.09.2009 07:14 20,4 C 9,4 C 0,0 UV-I 0,0 C 55 % 91 % 0 % 1025,7 hPa 0,0 l/m 0,5 km/h (0 Bft) 0 min 3,4 km/h (1 Bft)
22.09.2009 07:16 20,4 C 9,3 C 0,0 UV-I 0,0 C 55 % 91 % 0 % 1025,8 hPa 0,0 l/m 0,7 km/h (0 Bft) 0 min 2,4 km/h (1 Bft)
22.09.2009 07:18 20,4 C 9,3 C 0,0 UV-I 0,0 C 55 % 91 % 0 % 1025,8 hPa 0,0 l/m 1,0 km/h (0 Bft) 0 min 0,0 km/h (0 Bft)
22.09.2009 07:20 20,4 C 9,3 C 0,0 UV-I 0,0 C 55 % 91 % 0 % 1025,8 hPa 0,0 l/m 1,0 km/h (0 Bft) 0 min 0,0 km/h (0 Bft)
22.09.2009 07:22 20,4 C 9,3 C 0,0 UV-I 0,0 C 55 % 91 % 0 % 1025,8 hPa 0,0 l/m 1,0 km/h (0 Bft) 0 min 0,0 km/h (0 Bft)
22.09.2009 07:24 20,4 C 9,3 C 0,0 UV-I 0,0 C 54 % 91 % 0 % 1025,8 hPa 0,0 l/m 0,5 km/h (0 Bft) 0 min 3,6 km/h (1 Bft)
22.09.2009 07:26 20,4 C 9,3 C 0,0 UV-I 0,0 C 54 % 91 % 0 % 1025,8 hPa 0,0 l/m 0,5 km/h (0 Bft) 0 min 0,0 km/h (0 Bft)
22.09.2009 07:28 20,3 C 9,3 C 0,0 UV-I 0,0 C 54 % 91 % 0 % 1025,8 hPa 0,0 l/m 0,2 km/h (0 Bft) 0 min 0,0 km/h (0 Bft)
22.09.2009 07:30 20,2 C 9,3 C 0,0 UV-I 0,0 C 54 % 91 % 0 % 1025,8 hPa 0,0 l/m 0,5 km/h (0 Bft) 0 min 2,6 km/h (1 Bft)
22.09.2009 07:32 20,3 C 9,3 C 0,0 UV-I 0,0 C 55 % 91 % 0 % 1025,8 hPa 0,0 l/m 0,5 km/h (0 Bft) 0 min 2,6 km/h (1 Bft)
22.09.2009 07:34 20,3 C 9,3 C 0,0 UV-I 0,0 C 54 % 91 % 0 % 1025,8 hPa 0,0 l/m 0,7 km/h (0 Bft) 0 min 0,0 km/h (0 Bft)
22.09.2009 07:36 20,3 C 9,2 C 0,0 UV-I 0,0 C 54 % 91 % 0 % 1025,8 hPa 0,0 l/m 1,2 km/h (1 Bft) 0 min 3,6 km/h (1 Bft)
22.09.2009 07:38 20,3 C 9,3 C 0,0 UV-I 0,0 C 54 % 91 % 0 % 1025,8 hPa 0,0 l/m 1,7 km/h (1 Bft) 0 min 3,1 km/h (1 Bft)
22.09.2009 07:40 20,3 C 9,3 C 0,0 UV-I 0,0 C 54 % 91 % 0 % 1025,8 hPa 0,0 l/m 2,2 km/h (1 Bft) 0 min 5,8 km/h (2 Bft)
22.09.2009 07:42 20,3 C 9,3 C 0,0 UV-I 0,0 C 54 % 92 % 0 % 1025,8 hPa 0,0 l/m 2,4 km/h (1 Bft) 0 min 3,8 km/h (1 Bft)
22.09.2009 07:44 20,3 C 9,3 C 0,0 UV-I 0,0 C 54 % 92 % 0 % 1025,8 hPa 0,0 l/m 2,6 km/h (1 Bft) 0 min 4,6 km/h (1 Bft)
22.09.2009 07:46 20,2 C 9,3 C 0,0 UV-I 0,0 C 54 % 91 % 0 % 1025,8 hPa 0,0 l/m 2,4 km/h (1 Bft) 0 min 2,6 km/h (1 Bft)
22.09.2009 07:48 20,2 C 9,2 C 0,0 UV-I 0,0 C 54 % 91 % 0 % 1025,8 hPa 0,0 l/m 2,2 km/h (1 Bft) 0 min 3,8 km/h (1 Bft)
22.09.2009 07:50 20,2 C 9,3 C 0,0 UV-I 0,0 C 54 % 91 % 0 % 1025,8 hPa 0,0 l/m 2,4 km/h (1 Bft) 0 min 3,8 km/h (1 Bft)
22.09.2009 07:52 20,2 C 9,3 C 0,0 UV-I 0,0 C 54 % 92 % 0 % 1025,8 hPa 0,0 l/m 2,4 km/h (1 Bft) 0 min 2,6 km/h (1 Bft)
22.09.2009 07:54 20,2 C 9,3 C 0,0 UV-I 0,0 C 54 % 92 % 0 % 1025,8 hPa 0,0 l/m 2,4 km/h (1 Bft) 0 min 4,1 km/h (1 Bft)
22.09.2009 07:58 20,1 C 9,3 C 0,0 UV-I 0,0 C 54 % 92 % 0 % 1025,9 hPa 0,0 l/m 3,1 km/h (1 Bft) 0 min 5,1 km/h (1 Bft)
22.09.2009 08:00 20,1 C 9,3 C 0,0 UV-I 0,0 C 54 % 92 % 0 % 1025,9 hPa 0,0 l/m 3,1 km/h (1 Bft) 0 min 4,8 km/h (1 Bft)
22.09.2009 08:02 20,1 C 9,3 C 0,0 UV-I 0,0 C 54 % 92 % 0 % 1025,9 hPa 0,0 l/m 2,6 km/h (1 Bft) 0 min 3,1 km/h (1 Bft)
22.09.2009 08:04 20,1 C 9,3 C 0,0 UV-I 0,0 C 54 % 92 % 0 % 1025,9 hPa 0,0 l/m 2,9 km/h (1 Bft) 0 min 3,6 km/h (1 Bft)
22.09.2009 08:06 20,1 C 9,4 C 0,0 UV-I 0,0 C 54 % 92 % 0 % 1025,9 hPa 0,0 l/m 2,9 km/h (1 Bft) 0 min 6,0 km/h (2 Bft)
22.09.2009 08:08 20,1 C 9,4 C 0,0 UV-I 0,0 C 54 % 92 % 0 % 1025,9 hPa 0,0 l/m 3,1 km/h (1 Bft) 0 min 4,1 km/h (1 Bft)
22.09.2009 08:10 20,1 C 9,5 C 0,0 UV-I 0,0 C 54 % 92 % 0 % 1025,9 hPa 0,0 l/m 3,4 km/h (1 Bft) 0 min 6,0 km/h (2 Bft)
22.09.2009 08:12 20,0 C 9,5 C 0,0 UV-I 0,0 C 54 % 92 % 0 % 1025,9 hPa 0,0 l/m 3,4 km/h (1 Bft) 0 min 0,0 km/h (0 Bft)
22.09.2009 08:14 20,0 C 9,5 C 0,0 UV-I 0,1 C 54 % 92 % 3 % 1025,9 hPa 0,0 l/m 3,4 km/h (1 Bft) 0 min 4,8 km/h (1 Bft)
22.09.2009 08:16 20,0 C 9,4 C 0,0 UV-I 0,3 C 54 % 92 % 9 % 1025,9 hPa 0,0 l/m 3,4 km/h (1 Bft) 0 min 3,8 km/h (1 Bft)
22.09.2009 08:18 20,0 C 9,5 C 0,0 UV-I 0,2 C 54 % 92 % 6 % 1025,9 hPa 0,0 l/m 3,4 km/h (1 Bft) 0 min 3,6 km/h (1 Bft)
22.09.2009 08:20 20,0 C 9,5 C 0,0 UV-I 0,3 C 54 % 92 % 9 % 1025,9 hPa 0,0 l/m 3,1 km/h (1 Bft) 0 min 2,6 km/h (1 Bft)
22.09.2009 08:22 20,0 C 9,5 C 0,0 UV-I 0,4 C 54 % 92 % 11 % 1025,9 hPa 0,0 l/m 3,1 km/h (1 Bft) 0 min 3,6 km/h (1 Bft)
22.09.2009 08:24 20,0 C 9,5 C 0,1 UV-I 0,5 C 54 % 92 % 14 % 1025,9 hPa 0,0 l/m 3,1 km/h (1 Bft) 0 min 3,8 km/h (1 Bft)
22.09.2009 08:26 20,0 C 9,6 C 0,1 UV-I 0,4 C 54 % 92 % 11 % 1025,9 hPa 0,0 l/m 3,4 km/h (1 Bft) 0 min 4,1 km/h (1 Bft)
22.09.2009 08:28 20,0 C 9,6 C 0,0 UV-I 0,5 C 54 % 92 % 14 % 1025,9 hPa 0,0 l/m 3,1 km/h (1 Bft) 0 min 2,9 km/h (1 Bft)
22.09.2009 08:30 20,0 C 9,6 C 0,0 UV-I 0,6 C 54 % 92 % 17 % 1025,9 hPa 0,0 l/m 3,1 km/h (1 Bft) 0 min 4,6 km/h (1 Bft)
22.09.2009 08:32 20,0 C 9,7 C 0,0 UV-I 0,5 C 54 % 92 % 14 % 1025,9 hPa 0,0 l/m 2,9 km/h (1 Bft) 0 min 4,1 km/h (1 Bft)
22.09.2009 08:34 20,0 C 9,7 C 0,0 UV-I 0,6 C 54 % 92 % 17 % 1025,9 hPa 0,0 l/m 3,1 km/h (1 Bft) 0 min 4,8 km/h (1 Bft)
22.09.2009 08:36 20,0 C 9,7 C 0,0 UV-I 0,7 C 54 % 93 % 20 % 1025,6 hPa 0,0 l/m 3,4 km/h (1 Bft) 0 min 6,3 km/h (2 Bft)
22.09.2009 08:38 20,0 C 9,9 C 0,0 UV-I 0,6 C 54 % 93 % 17 % 1025,6 hPa 0,0 l/m 3,4 km/h (1 Bft) 0 min 5,3 km/h (1 Bft)
22.09.2009 08:40 20,0 C 9,8 C 0,0 UV-I 0,8 C 54 % 93 % 23 % 1025,6 hPa 0,0 l/m 3,4 km/h (1 Bft) 0 min 6,5 km/h (2 Bft)
22.09.2009 08:42 20,0 C 9,9 C 0,0 UV-I 0,8 C 54 % 93 % 23 % 1025,6 hPa 0,0 l/m 3,4 km/h (1 Bft) 0 min 3,8 km/h (1 Bft)
22.09.2009 08:44 20,0 C 10,0 C 0,1 UV-I 0,8 C 55 % 93 % 23 % 1025,6 hPa 0,0 l/m 3,4 km/h (1 Bft) 0 min 3,8 km/h (1 Bft)
22.09.2009 08:48 19,9 C 10,0 C 0,1 UV-I 1,0 C 55 % 93 % 29 % 1025,6 hPa 0,0 l/m 2,4 km/h (1 Bft) 0 min 3,8 km/h (1 Bft)
22.09.2009 08:50 20,0 C 10,1 C 0,1 UV-I 1,0 C 55 % 93 % 29 % 1025,6 hPa 0,0 l/m 1,9 km/h (1 Bft) 0 min 0,0 km/h (0 Bft)
22.09.2009 08:52 20,0 C 10,1 C 0,1 UV-I 1,1 C 55 % 93 % 31 % 1025,6 hPa 0,0 l/m 1,7 km/h (1 Bft) 0 min 0,0 km/h (0 Bft)
22.09.2009 08:54 19,9 C 10,1 C 0,3 UV-I 1,2 C 55 % 93 % 34 % 1025,6 hPa 0,0 l/m 1,0 km/h (0 Bft) 0 min 0,0 km/h (0 Bft)
22.09.2009 08:56 20,0 C 10,1 C 0,3 UV-I 1,3 C 55 % 93 % 37 % 1025,9 hPa 0,0 l/m 0,7 km/h (0 Bft) 0 min 3,6 km/h (1 Bft)
22.09.2009 08:58 19,9 C 10,3 C 0,5 UV-I 1,2 C 55 % 93 % 34 % 1025,9 hPa 0,0 l/m 0,7 km/h (0 Bft) 0 min 2,4 km/h (1 Bft)
22.09.2009 09:00 20,0 C 10,3 C 0,5 UV-I 1,4 C 55 % 93 % 40 % 1025,9 hPa 0,0 l/m 0,7 km/h (0 Bft) 0 min 2,4 km/h (1 Bft)
22.09.2009 09:02 20,0 C 10,4 C 0,5 UV-I 1,4 C 55 % 93 % 40 % 1025,9 hPa 0,0 l/m 1,2 km/h (1 Bft) 0 min 2,6 km/h (1 Bft)
22.09.2009 09:04 20,0 C 10,5 C 0,4 UV-I 1,4 C 55 % 93 % 40 % 1025,9 hPa 0,0 l/m 1,4 km/h (1 Bft) 0 min 3,1 km/h (1 Bft)
22.09.2009 09:06 20,0 C 10,5 C 0,4 UV-I 1,4 C 55 % 93 % 40 % 1025,9 hPa 0,0 l/m 1,7 km/h (1 Bft) 0 min 2,4 km/h (1 Bft)
22.09.2009 09:08 20,0 C 10,6 C 0,2 UV-I 1,5 C 55 % 93 % 43 % 1025,9 hPa 0,0 l/m 1,2 km/h (1 Bft) 0 min 0,0 km/h (0 Bft)
22.09.2009 09:10 20,0 C 10,7 C 0,2 UV-I 1,5 C 56 % 93 % 43 % 1025,9 hPa 0,0 l/m 1,2 km/h (1 Bft) 0 min 0,0 km/h (0 Bft)
22.09.2009 09:12 20,0 C 10,7 C 0,2 UV-I 1,6 C 56 % 93 % 46 % 1025,9 hPa 0,0 l/m 1,0 km/h (0 Bft) 0 min 0,0 km/h (0 Bft)
22.09.2009 09:16 20,0 C 10,9 C 0,4 UV-I 1,7 C 56 % 93 % 49 % 1026,1 hPa 0,0 l/m 0,5 km/h (0 Bft) 0 min 0,0 km/h (0 Bft)
22.09.2009 09:18 20,0 C 10,8 C 0,3 UV-I 1,8 C 56 % 93 % 51 % 1026,1 hPa 0,0 l/m 0,2 km/h (0 Bft) 0 min 0,0 km/h (0 Bft)
22.09.2009 09:20 20,0 C 10,9 C 0,3 UV-I 1,9 C 56 % 93 % 54 % 1026,1 hPa 0,0 l/m 0,2 km/h (0 Bft) 0 min 0,0 km/h (0 Bft)
22.09.2009 09:22 20,0 C 11,1 C 0,3 UV-I 1,8 C 56 % 93 % 51 % 1026,1 hPa 0,0 l/m 0,2 km/h (0 Bft) 0 min 0,0 km/h (0 Bft)
22.09.2009 09:24 20,0 C 11,1 C 0,2 UV-I 1,9 C 56 % 93 % 54 % 1026,1 hPa 0,0 l/m 0,2 km/h (0 Bft) 0 min 0,0 km/h (0 Bft)
22.09.2009 09:26 20,0 C 11,2 C 0,2 UV-I 2,0 C 56 % 93 % 57 % 1026,1 hPa 0,0 l/m 0,0 km/h (0 Bft) 0 min 0,0 km/h (0 Bft)
22.09.2009 09:28 20,0 C 11,3 C 0,2 UV-I 2,1 C 56 % 93 % 60 % 1026,1 hPa 0,0 l/m 0,0 km/h (0 Bft) 0 min 0,0 km/h (0 Bft)
22.09.2009 09:30 20,0 C 11,4 C 0,2 UV-I 2,1 C 56 % 93 % 60 % 1026,1 hPa 0,0 l/m 0,2 km/h (0 Bft) 0 min 2,4 km/h (1 Bft)
22.09.2009 09:32 20,1 C 11,5 C 0,2 UV-I 2,2 C 56 % 93 % 63 % 1026,1 hPa 0,0 l/m 0,7 km/h (0 Bft) 0 min 3,8 km/h (1 Bft)
22.09.2009 09:34 20,1 C 11,7 C 0,7 UV-I 2,2 C 56 % 93 % 63 % 1026,1 hPa 0,0 l/m 1,0 km/h (0 Bft) 0 min 0,0 km/h (0 Bft)
22.09.2009 09:36 20,1 C 11,8 C 0,7 UV-I 2,3 C 56 % 93 % 66 % 1025,8 hPa 0,0 l/m 1,2 km/h (1 Bft) 0 min 5,1 km/h (1 Bft)
22.09.2009 09:38 20,1 C 11,9 C 1,0 UV-I 2,3 C 56 % 93 % 66 % 1025,8 hPa 0,0 l/m 1,4 km/h (1 Bft) 0 min 0,0 km/h (0 Bft)
22.09.2009 09:40 20,1 C 12,0 C 1,0 UV-I 2,4 C 56 % 93 % 69 % 1025,8 hPa 0,0 l/m 1,9 km/h (1 Bft) 0 min 9,4 km/h (2 Bft)
22.09.2009 09:42 20,1 C 12,2 C 1,0 UV-I 2,4 C 56 % 93 % 69 % 1025,8 hPa 0,0 l/m 2,2 km/h (1 Bft) 0 min 7,7 km/h (2 Bft)
22.09.2009 09:46 20,2 C 12,5 C 0,7 UV-I 2,5 C 57 % 93 % 71 % 1025,8 hPa 0,0 l/m 1,7 km/h (1 Bft) 0 min 3,1 km/h (1 Bft)
22.09.2009 09:48 20,2 C 12,7 C 0,6 UV-I 3,3 C 57 % 93 % 94 % 1025,8 hPa 0,0 l/m 1,7 km/h (1 Bft) 2 min 2,9 km/h (1 Bft)
22.09.2009 09:50 20,2 C 12,7 C 0,6 UV-I 4,3 C 57 % 93 % 100 % 1025,8 hPa 0,0 l/m 1,7 km/h (1 Bft) 2 min 5,1 km/h (1 Bft)
22.09.2009 09:52 20,2 C 12,9 C 0,6 UV-I 5,0 C 57 % 92 % 100 % 1025,8 hPa 0,0 l/m 1,9 km/h (1 Bft) 2 min 2,4 km/h (1 Bft)
22.09.2009 09:54 20,2 C 13,1 C 0,6 UV-I 5,7 C 57 % 92 % 100 % 1025,8 hPa 0,0 l/m 2,2 km/h (1 Bft) 2 min 4,1 km/h (1 Bft)
22.09.2009 09:56 20,2 C 13,2 C 0,6 UV-I 6,2 C 57 % 92 % 100 % 1026,2 hPa 0,0 l/m 2,2 km/h (1 Bft) 2 min 6,0 km/h (2 Bft)
22.09.2009 09:58 20,2 C 13,3 C 1,4 UV-I 6,6 C 57 % 92 % 100 % 1026,2 hPa 0,0 l/m 2,9 km/h (1 Bft) 2 min 5,1 km/h (1 Bft)
22.09.2009 10:00 20,2 C 13,5 C 1,4 UV-I 6,8 C 57 % 91 % 100 % 1026,2 hPa 0,0 l/m 3,1 km/h (1 Bft) 2 min 3,6 km/h (1 Bft)
22.09.2009 10:02 20,3 C 13,6 C 1,4 UV-I 6,9 C 57 % 91 % 100 % 1026,2 hPa 0,0 l/m 3,4 km/h (1 Bft) 2 min 6,7 km/h (2 Bft)
22.09.2009 10:04 20,3 C 13,8 C 1,5 UV-I 7,0 C 57 % 91 % 100 % 1026,2 hPa 0,0 l/m 3,4 km/h (1 Bft) 2 min 5,3 km/h (1 Bft)
22.09.2009 10:06 20,3 C 13,9 C 1,5 UV-I 7,2 C 57 % 90 % 100 % 1026,2 hPa 0,0 l/m 3,1 km/h (1 Bft) 2 min 3,1 km/h (1 Bft)
22.09.2009 10:08 20,3 C 14,0 C 1,9 UV-I 7,5 C 57 % 90 % 100 % 1026,2 hPa 0,0 l/m 2,9 km/h (1 Bft) 2 min 4,3 km/h (1 Bft)
22.09.2009 10:10 20,3 C 14,3 C 1,9 UV-I 7,9 C 57 % 90 % 100 % 1026,2 hPa 0,0 l/m 2,4 km/h (1 Bft) 2 min 3,1 km/h (1 Bft)
22.09.2009 10:12 20,3 C 14,4 C 1,9 UV-I 8,1 C 57 % 89 % 100 % 1026,2 hPa 0,0 l/m 2,6 km/h (1 Bft) 2 min 6,7 km/h (2 Bft)
22.09.2009 10:14 20,2 C 14,7 C 1,4 UV-I 7,5 C 57 % 90 % 100 % 1026,2 hPa 0,0 l/m 2,4 km/h (1 Bft) 2 min 3,8 km/h (1 Bft)
22.09.2009 10:16 20,2 C 14,6 C 1,4 UV-I 7,2 C 57 % 89 % 100 % 1026,4 hPa 0,0 l/m 1,9 km/h (1 Bft) 2 min 2,9 km/h (1 Bft)
22.09.2009 10:18 20,2 C 14,8 C 1,5 UV-I 6,8 C 57 % 88 % 100 % 1026,4 hPa 0,0 l/m 2,4 km/h (1 Bft) 2 min 7,0 km/h (2 Bft)
22.09.2009 10:20 20,2 C 14,8 C 1,5 UV-I 6,2 C 57 % 88 % 100 % 1026,4 hPa 0,0 l/m 2,6 km/h (1 Bft) 2 min 2,4 km/h (1 Bft)
22.09.2009 10:22 20,4 C 15,1 C 1,5 UV-I 5,5 C 58 % 88 % 100 % 1026,4 hPa 0,0 l/m 2,4 km/h (1 Bft) 2 min 2,9 km/h (1 Bft)
22.09.2009 10:24 20,4 C 15,1 C 1,5 UV-I 5,2 C 58 % 88 % 100 % 1026,4 hPa 0,0 l/m 2,4 km/h (1 Bft) 2 min 3,6 km/h (1 Bft)
22.09.2009 10:26 20,4 C 15,2 C 1,5 UV-I 4,7 C 58 % 87 % 100 % 1026,4 hPa 0,0 l/m 2,6 km/h (1 Bft) 2 min 3,6 km/h (1 Bft)
22.09.2009 10:28 20,4 C 15,3 C 1,5 UV-I 4,4 C 58 % 87 % 100 % 1026,4 hPa 0,0 l/m 2,2 km/h (1 Bft) 2 min 0,0 km/h (0 Bft)
22.09.2009 10:30 20,4 C 15,3 C 1,5 UV-I 4,2 C 58 % 87 % 100 % 1026,4 hPa 0,0 l/m 2,2 km/h (1 Bft) 2 min 4,8 km/h (1 Bft)
22.09.2009 10:32 20,4 C 15,5 C 1,5 UV-I 4,3 C 58 % 86 % 100 % 1026,4 hPa 0,0 l/m 2,4 km/h (1 Bft) 2 min 2,4 km/h (1 Bft)
22.09.2009 10:34 20,4 C 15,6 C 2,4 UV-I 4,7 C 58 % 86 % 100 % 1026,4 hPa 0,0 l/m 2,6 km/h (1 Bft) 2 min 0,0 km/h (0 Bft)
22.09.2009 10:36 20,4 C 15,6 C 2,4 UV-I 5,2 C 58 % 85 % 100 % 1026,6 hPa 0,0 l/m 3,1 km/h (1 Bft) 2 min 10,1 km/h (2 Bft)
22.09.2009 10:38 20,4 C 15,7 C 2,0 UV-I 5,1 C 58 % 84 % 100 % 1026,6 hPa 0,0 l/m 4,1 km/h (1 Bft) 2 min 5,1 km/h (1 Bft)
22.09.2009 10:40 20,4 C 16,0 C 2,0 UV-I 4,6 C 58 % 85 % 100 % 1026,6 hPa 0,0 l/m 4,1 km/h (1 Bft) 2 min 10,3 km/h (2 Bft)
22.09.2009 10:42 20,4 C 16,0 C 2,0 UV-I 4,1 C 58 % 84 % 100 % 1026,6 hPa 0,0 l/m 4,1 km/h (1 Bft) 2 min 5,8 km/h (2 Bft)
22.09.2009 10:44 20,4 C 16,1 C 1,5 UV-I 3,5 C 58 % 84 % 100 % 1026,6 hPa 0,0 l/m 3,6 km/h (1 Bft) 2 min 7,2 km/h (2 Bft)
22.09.2009 10:46 20,4 C 16,0 C 1,5 UV-I 3,2 C 58 % 83 % 91 % 1026,6 hPa 0,0 l/m 3,4 km/h (1 Bft) 2 min 4,8 km/h (1 Bft)
22.09.2009 10:48 20,4 C 16,1 C 1,9 UV-I 2,9 C 58 % 83 % 83 % 1026,6 hPa 0,0 l/m 2,6 km/h (1 Bft) 2 min 0,0 km/h (0 Bft)
22.09.2009 10:52 20,4 C 16,2 C 1,9 UV-I 3,1 C 58 % 83 % 89 % 1026,6 hPa 0,0 l/m 1,4 km/h (1 Bft) 2 min 4,1 km/h (1 Bft)
22.09.2009 10:54 20,4 C 16,3 C 3,2 UV-I 3,6 C 58 % 82 % 100 % 1026,6 hPa 0,0 l/m 1,7 km/h (1 Bft) 2 min 2,6 km/h (1 Bft)
22.09.2009 10:56 20,4 C 16,3 C 3,2 UV-I 4,4 C 58 % 82 % 100 % 1026,7 hPa 0,0 l/m 1,9 km/h (1 Bft) 2 min 4,1 km/h (1 Bft)
22.09.2009 10:58 20,4 C 16,5 C 5,7 UV-I 5,0 C 58 % 82 % 100 % 1026,7 hPa 0,0 l/m 1,4 km/h (1 Bft) 2 min 0,0 km/h (0 Bft)
22.09.2009 11:00 20,5 C 16,6 C 5,7 UV-I 5,8 C 58 % 82 % 100 % 1026,7 hPa 0,0 l/m 1,4 km/h (1 Bft) 2 min 2,6 km/h (1 Bft)
22.09.2009 11:04 20,4 C 16,9 C 5,5 UV-I 6,1 C 58 % 80 % 100 % 1026,7 hPa 0,0 l/m 2,2 km/h (1 Bft) 2 min 5,3 km/h (1 Bft)
22.09.2009 11:06 20,4 C 17,0 C 5,5 UV-I 6,1 C 58 % 80 % 100 % 1026,7 hPa 0,0 l/m 2,4 km/h (1 Bft) 2 min 3,8 km/h (1 Bft)
22.09.2009 11:08 20,5 C 17,1 C 6,3 UV-I 6,3 C 58 % 80 % 100 % 1026,7 hPa 0,0 l/m 2,6 km/h (1 Bft) 2 min 3,6 km/h (1 Bft)
22.09.2009 11:10 20,5 C 17,2 C 6,3 UV-I 6,4 C 58 % 80 % 100 % 1026,7 hPa 0,0 l/m 3,4 km/h (1 Bft) 2 min 0,0 km/h (0 Bft)
22.09.2009 11:12 20,5 C 17,5 C 6,3 UV-I 6,2 C 58 % 78 % 100 % 1026,7 hPa 0,0 l/m 3,8 km/h (1 Bft) 2 min 8,4 km/h (2 Bft)
22.09.2009 11:16 20,5 C 17,5 C 5,2 UV-I 5,6 C 58 % 77 % 100 % 1026,6 hPa 0,0 l/m 4,8 km/h (1 Bft) 2 min 14,7 km/h (3 Bft)
22.09.2009 11:18 20,5 C 17,7 C 3,6 UV-I 4,9 C 58 % 76 % 100 % 1026,6 hPa 0,0 l/m 5,3 km/h (1 Bft) 2 min 5,3 km/h (1 Bft)
22.09.2009 11:20 20,5 C 17,6 C 3,6 UV-I 4,5 C 58 % 76 % 100 % 1026,6 hPa 0,0 l/m 4,8 km/h (1 Bft) 2 min 14,7 km/h (3 Bft)
22.09.2009 11:22 20,5 C 17,7 C 3,6 UV-I 4,4 C 58 % 76 % 100 % 1026,6 hPa 0,0 l/m 5,1 km/h (1 Bft) 2 min 6,5 km/h (2 Bft)
22.09.2009 11:24 20,6 C 17,9 C 5,3 UV-I 4,5 C 58 % 76 % 100 % 1026,6 hPa 0,0 l/m 4,6 km/h (1 Bft) 2 min 2,9 km/h (1 Bft)
22.09.2009 11:26 20,6 C 17,9 C 5,3 UV-I 4,8 C 58 % 74 % 100 % 1026,6 hPa 0,0 l/m 4,6 km/h (1 Bft) 2 min 6,7 km/h (2 Bft)
22.09.2009 11:28 20,6 C 18,0 C 7,7 UV-I 5,0 C 57 % 74 % 100 % 1026,6 hPa 0,0 l/m 4,1 km/h (1 Bft) 2 min 7,0 km/h (2 Bft)
22.09.2009 11:32 20,6 C 18,3 C 7,7 UV-I 5,1 C 57 % 74 % 100 % 1026,6 hPa 0,0 l/m 4,1 km/h (1 Bft) 2 min 7,7 km/h (2 Bft)
22.09.2009 11:36 20,6 C 18,4 C 5,5 UV-I 4,5 C 57 % 72 % 100 % 1026,6 hPa 0,0 l/m 4,6 km/h (1 Bft) 2 min 11,8 km/h (2 Bft)
22.09.2009 11:38 20,6 C 18,4 C 2,8 UV-I 3,8 C 57 % 72 % 100 % 1026,6 hPa 0,0 l/m 4,6 km/h (1 Bft) 2 min 10,1 km/h (2 Bft)
22.09.2009 11:40 20,6 C 18,4 C 2,8 UV-I 3,3 C 57 % 72 % 94 % 1026,6 hPa 0,0 l/m 4,6 km/h (1 Bft) 2 min 8,9 km/h (2 Bft)
22.09.2009 11:42 20,6 C 18,4 C 2,8 UV-I 3,1 C 57 % 72 % 89 % 1026,6 hPa 0,0 l/m 5,1 km/h (1 Bft) 2 min 12,5 km/h (3 Bft)
22.09.2009 11:44 20,6 C 18,5 C 4,4 UV-I 3,2 C 57 % 71 % 91 % 1026,6 hPa 0,0 l/m 5,3 km/h (1 Bft) 2 min 4,6 km/h (1 Bft)
22.09.2009 11:48 20,6 C 18,7 C 4,4 UV-I 3,8 C 57 % 72 % 100 % 1026,6 hPa 0,0 l/m 3,6 km/h (1 Bft) 2 min 5,1 km/h (1 Bft)
22.09.2009 11:52 20,6 C 18,8 C 4,4 UV-I 4,1 C 57 % 72 % 100 % 1026,6 hPa 0,0 l/m 3,8 km/h (1 Bft) 2 min 5,5 km/h (1 Bft)
22.09.2009 11:54 20,7 C 18,8 C 8,7 UV-I 4,5 C 57 % 72 % 100 % 1026,6 hPa 0,0 l/m 2,9 km/h (1 Bft) 2 min 4,3 km/h (1 Bft)
22.09.2009 11:56 20,7 C 18,9 C 8,7 UV-I 4,9 C 57 % 71 % 100 % 1026,8 hPa 0,0 l/m 3,4 km/h (1 Bft) 2 min 5,5 km/h (1 Bft)
22.09.2009 11:58 20,7 C 19,1 C 9,3 UV-I 5,1 C 57 % 70 % 100 % 1026,8 hPa 0,0 l/m 4,6 km/h (1 Bft) 2 min 5,3 km/h (1 Bft)
22.09.2009 12:00 20,7 C 19,2 C 9,3 UV-I 5,1 C 57 % 70 % 100 % 1026,8 hPa 0,0 l/m 5,1 km/h (1 Bft) 2 min 14,9 km/h (3 Bft)
22.09.2009 12:02 20,7 C 19,3 C 9,3 UV-I 5,4 C 57 % 70 % 100 % 1026,8 hPa 0,0 l/m 5,3 km/h (1 Bft) 2 min 7,7 km/h (2 Bft)
22.09.2009 12:04 20,7 C 19,3 C 9,3 UV-I 5,4 C 57 % 70 % 100 % 1026,8 hPa 0,0 l/m 5,3 km/h (1 Bft) 2 min 7,7 km/h (2 Bft)
22.09.2009 12:06 20,8 C 19,4 C 9,3 UV-I 5,9 C 57 % 69 % 100 % 1026,8 hPa 0,0 l/m 5,1 km/h (1 Bft) 2 min 0,0 km/h (0 Bft)
22.09.2009 12:08 20,8 C 19,6 C 10,1 UV-I 6,1 C 57 % 69 % 100 % 1026,8 hPa 0,0 l/m 5,1 km/h (1 Bft) 2 min 13,5 km/h (3 Bft)
22.09.2009 12:10 20,8 C 19,7 C 10,1 UV-I 5,9 C 57 % 68 % 100 % 1026,8 hPa 0,0 l/m 5,5 km/h (1 Bft) 2 min 15,6 km/h (3 Bft)
22.09.2009 12:12 20,8 C 19,7 C 10,1 UV-I 5,4 C 58 % 69 % 100 % 1026,8 hPa 0,0 l/m 5,8 km/h (2 Bft) 2 min 7,5 km/h (2 Bft)
22.09.2009 12:14 20,8 C 19,9 C 7,6 UV-I 5,1 C 58 % 67 % 100 % 1026,8 hPa 0,0 l/m 5,8 km/h (2 Bft) 2 min 8,2 km/h (2 Bft)
22.09.2009 12:16 20,8 C 19,9 C 7,6 UV-I 5,1 C 57 % 67 % 100 % 1026,8 hPa 0,0 l/m 5,8 km/h (2 Bft) 2 min 4,6 km/h (1 Bft)
22.09.2009 12:18 20,8 C 19,9 C 8,3 UV-I 5,1 C 57 % 67 % 100 % 1026,8 hPa 0,0 l/m 6,5 km/h (2 Bft) 2 min 5,1 km/h (1 Bft)
22.09.2009 12:20 20,9 C 20,0 C 8,3 UV-I 5,1 C 57 % 67 % 100 % 1026,8 hPa 0,0 l/m 5,5 km/h (1 Bft) 2 min 17,6 km/h (3 Bft)
22.09.2009 12:22 20,9 C 20,0 C 8,3 UV-I 5,4 C 57 % 67 % 100 % 1026,8 hPa 0,0 l/m 5,3 km/h (1 Bft) 2 min 15,9 km/h (3 Bft)
22.09.2009 12:24 20,9 C 20,1 C 8,3 UV-I 5,3 C 58 % 65 % 100 % 1026,8 hPa 0,0 l/m 5,8 km/h (2 Bft) 2 min 9,1 km/h (2 Bft)
22.09.2009 12:26 20,9 C 20,1 C 8,3 UV-I 5,1 C 58 % 65 % 100 % 1026,8 hPa 0,0 l/m 5,8 km/h (2 Bft) 2 min 10,6 km/h (2 Bft)
22.09.2009 12:28 21,0 C 20,0 C 4,7 UV-I 4,6 C 58 % 65 % 100 % 1026,8 hPa 0,0 l/m 5,3 km/h (1 Bft) 2 min 6,3 km/h (2 Bft)
22.09.2009 12:30 21,0 C 20,0 C 4,7 UV-I 4,1 C 58 % 64 % 100 % 1026,8 hPa 0,0 l/m 6,0 km/h (2 Bft) 2 min 7,5 km/h (2 Bft)
22.09.2009 12:32 21,0 C 20,0 C 4,7 UV-I 3,3 C 58 % 65 % 94 % 1026,8 hPa 0,0 l/m 6,0 km/h (2 Bft) 2 min 5,3 km/h (1 Bft)
22.09.2009 12:34 21,0 C 19,9 C 3,7 UV-I 3,0 C 57 % 65 % 86 % 1026,8 hPa 0,0 l/m 5,3 km/h (1 Bft) 2 min 2,6 km/h (1 Bft)
22.09.2009 12:36 21,0 C 20,1 C 3,7 UV-I 2,8 C 58 % 66 % 80 % 1026,8 hPa 0,0 l/m 5,3 km/h (1 Bft) 0 min 3,4 km/h (1 Bft)
22.09.2009 12:38 21,0 C 20,0 C 9,2 UV-I 3,2 C 57 % 66 % 91 % 1026,8 hPa 0,0 l/m 4,8 km/h (1 Bft) 2 min 2,9 km/h (1 Bft)
22.09.2009 12:40 21,0 C 20,2 C 9,2 UV-I 3,6 C 57 % 65 % 100 % 1026,8 hPa 0,0 l/m 4,6 km/h (1 Bft) 2 min 8,9 km/h (2 Bft)
22.09.2009 12:42 21,0 C 20,3 C 9,2 UV-I 3,9 C 57 % 65 % 100 % 1026,8 hPa 0,0 l/m 4,8 km/h (1 Bft) 2 min 5,1 km/h (1 Bft)
22.09.2009 12:44 21,0 C 20,4 C 9,2 UV-I 4,3 C 57 % 65 % 100 % 1026,8 hPa 0,0 l/m 5,1 km/h (1 Bft) 2 min 3,6 km/h (1 Bft)
22.09.2009 12:46 21,1 C 20,5 C 9,2 UV-I 4,3 C 57 % 65 % 100 % 1026,8 hPa 0,0 l/m 5,3 km/h (1 Bft) 2 min 14,2 km/h (3 Bft)
22.09.2009 12:48 21,1 C 20,7 C 10,4 UV-I 4,3 C 57 % 65 % 100 % 1026,8 hPa 0,0 l/m 5,3 km/h (1 Bft) 2 min 0,0 km/h (0 Bft)
22.09.2009 12:50 21,1 C 20,7 C 10,4 UV-I 4,8 C 57 % 64 % 100 % 1026,8 hPa 0,0 l/m 5,3 km/h (1 Bft) 2 min 6,5 km/h (2 Bft)
22.09.2009 12:52 21,2 C 20,8 C 10,4 UV-I 5,1 C 57 % 63 % 100 % 1026,8 hPa 0,0 l/m 5,1 km/h (1 Bft) 2 min 12,0 km/h (2 Bft)
22.09.2009 12:54 21,2 C 20,9 C 8,9 UV-I 5,3 C 57 % 63 % 100 % 1026,8 hPa 0,0 l/m 5,1 km/h (1 Bft) 2 min 7,0 km/h (2 Bft)
22.09.2009 12:56 21,2 C 21,1 C 8,9 UV-I 5,4 C 57 % 62 % 100 % 1026,5 hPa 0,0 l/m 5,3 km/h (1 Bft) 2 min 8,2 km/h (2 Bft)
22.09.2009 12:58 21,2 C 21,0 C 3,6 UV-I 5,6 C 57 % 62 % 100 % 1026,5 hPa 0,0 l/m 4,8 km/h (1 Bft) 2 min 7,2 km/h (2 Bft)
22.09.2009 13:00 21,3 C 21,1 C 3,6 UV-I 5,7 C 57 % 62 % 100 % 1026,5 hPa 0,0 l/m 4,8 km/h (1 Bft) 2 min 9,1 km/h (2 Bft)
22.09.2009 13:02 21,2 C 21,2 C 3,6 UV-I 5,8 C 57 % 61 % 100 % 1026,5 hPa 0,0 l/m 5,1 km/h (1 Bft) 2 min 10,3 km/h (2 Bft)
22.09.2009 13:04 21,2 C 21,3 C 7,4 UV-I 5,7 C 57 % 61 % 100 % 1026,5 hPa 0,0 l/m 5,3 km/h (1 Bft) 2 min 12,5 km/h (3 Bft)
22.09.2009 13:06 21,4 C 21,5 C 7,4 UV-I 5,5 C 57 % 61 % 100 % 1026,5 hPa 0,0 l/m 6,0 km/h (2 Bft) 2 min 6,5 km/h (2 Bft)
22.09.2009 13:08 21,4 C 21,5 C 6,0 UV-I 5,5 C 57 % 61 % 100 % 1026,5 hPa 0,0 l/m 6,0 km/h (2 Bft) 2 min 7,2 km/h (2 Bft)
22.09.2009 13:10 21,4 C 21,5 C 6,0 UV-I 5,6 C 57 % 61 % 100 % 1026,5 hPa 0,0 l/m 6,0 km/h (2 Bft) 2 min 3,6 km/h (1 Bft)
22.09.2009 13:12 21,5 C 21,5 C 6,0 UV-I 5,7 C 57 % 61 % 100 % 1026,5 hPa 0,0 l/m 6,7 km/h (2 Bft) 2 min 9,6 km/h (2 Bft)
22.09.2009 13:14 21,5 C 21,6 C 9,0 UV-I 5,4 C 56 % 60 % 100 % 1026,5 hPa 0,0 l/m 6,7 km/h (2 Bft) 2 min 5,3 km/h (1 Bft)
22.09.2009 13:16 21,5 C 21,6 C 9,0 UV-I 5,0 C 56 % 60 % 100 % 1026,5 hPa 0,0 l/m 7,2 km/h (2 Bft) 2 min 11,8 km/h (2 Bft)
22.09.2009 13:18 21,6 C 21,6 C 11,5 UV-I 4,9 C 56 % 59 % 100 % 1026,5 hPa 0,0 l/m 7,2 km/h (2 Bft) 2 min 11,1 km/h (2 Bft)
22.09.2009 13:20 21,6 C 21,7 C 11,5 UV-I 4,8 C 56 % 59 % 100 % 1026,5 hPa 0,0 l/m 7,0 km/h (2 Bft) 2 min 3,6 km/h (1 Bft)
22.09.2009 13:22 21,6 C 21,9 C 11,5 UV-I 4,8 C 56 % 58 % 100 % 1026,5 hPa 0,0 l/m 7,2 km/h (2 Bft) 2 min 7,7 km/h (2 Bft)
22.09.2009 13:24 21,6 C 21,8 C 11,6 UV-I 5,1 C 56 % 59 % 100 % 1026,5 hPa 0,0 l/m 6,7 km/h (2 Bft) 2 min 7,7 km/h (2 Bft)
22.09.2009 13:26 21,7 C 21,9 C 11,6 UV-I 5,3 C 56 % 59 % 100 % 1026,5 hPa 0,0 l/m 5,5 km/h (1 Bft) 2 min 3,1 km/h (1 Bft)
22.09.2009 13:28 21,7 C 22,0 C 7,6 UV-I 4,7 C 56 % 58 % 100 % 1026,5 hPa 0,0 l/m 4,8 km/h (1 Bft) 2 min 5,1 km/h (1 Bft)
22.09.2009 13:30 21,8 C 22,0 C 7,6 UV-I 4,4 C 56 % 58 % 100 % 1026,5 hPa 0,0 l/m 4,3 km/h (1 Bft) 2 min 21,2 km/h (4 Bft)
22.09.2009 13:32 21,8 C 22,1 C 7,6 UV-I 4,6 C 56 % 58 % 100 % 1026,5 hPa 0,0 l/m 4,1 km/h (1 Bft) 2 min 8,7 km/h (2 Bft)
22.09.2009 13:34 21,8 C 22,3 C 10,4 UV-I 4,5 C 55 % 58 % 100 % 1026,5 hPa 0,0 l/m 4,6 km/h (1 Bft) 2 min 4,1 km/h (1 Bft)
22.09.2009 13:36 21,9 C 22,2 C 10,4 UV-I 4,6 C 55 % 56 % 100 % 1026,6 hPa 0,0 l/m 5,1 km/h (1 Bft) 2 min 7,0 km/h (2 Bft)
22.09.2009 13:38 22,0 C 22,3 C 12,1 UV-I 4,7 C 55 % 55 % 100 % 1026,6 hPa 0,0 l/m 5,8 km/h (2 Bft) 2 min 17,6 km/h (3 Bft)
22.09.2009 13:40 22,0 C 22,3 C 12,1 UV-I 4,9 C 55 % 55 % 100 % 1026,6 hPa 0,0 l/m 6,0 km/h (2 Bft) 2 min 10,8 km/h (2 Bft)
22.09.2009 13:42 22,0 C 22,4 C 12,1 UV-I 4,9 C 55 % 55 % 100 % 1026,6 hPa 0,0 l/m 6,5 km/h (2 Bft) 2 min 8,7 km/h (2 Bft)
22.09.2009 13:44 22,1 C 22,5 C 11,7 UV-I 4,9 C 54 % 55 % 100 % 1026,6 hPa 0,0 l/m 6,5 km/h (2 Bft) 2 min 12,3 km/h (3 Bft)
22.09.2009 13:46 22,2 C 22,7 C 11,7 UV-I 4,8 C 54 % 55 % 100 % 1026,6 hPa 0,0 l/m 6,5 km/h (2 Bft) 2 min 16,6 km/h (3 Bft)
22.09.2009 13:48 22,2 C 22,7 C 11,8 UV-I 4,9 C 54 % 56 % 100 % 1026,6 hPa 0,0 l/m 7,0 km/h (2 Bft) 2 min 5,5 km/h (1 Bft)
22.09.2009 13:50 22,2 C 22,9 C 11,8 UV-I 4,9 C 54 % 55 % 100 % 1026,6 hPa 0,0 l/m 6,3 km/h (2 Bft) 2 min 2,6 km/h (1 Bft)
22.09.2009 13:52 22,2 C 23,0 C 11,8 UV-I 4,8 C 54 % 54 % 100 % 1026,6 hPa 0,0 l/m 5,5 km/h (1 Bft) 2 min 7,2 km/h (2 Bft)
22.09.2009 13:54 22,4 C 23,0 C 9,4 UV-I 4,7 C 54 % 53 % 100 % 1026,6 hPa 0,0 l/m 6,0 km/h (2 Bft) 2 min 12,3 km/h (3 Bft)
22.09.2009 13:56 22,4 C 23,0 C 9,4 UV-I 4,5 C 54 % 52 % 100 % 1026,9 hPa 0,0 l/m 6,3 km/h (2 Bft) 2 min 3,8 km/h (1 Bft)
22.09.2009 13:58 22,4 C 23,1 C 8,5 UV-I 4,1 C 53 % 52 % 100 % 1026,9 hPa 0,0 l/m 5,5 km/h (1 Bft) 2 min 9,9 km/h (2 Bft)
22.09.2009 14:00 22,5 C 23,1 C 8,5 UV-I 3,7 C 53 % 52 % 100 % 1026,9 hPa 0,0 l/m 6,0 km/h (2 Bft) 2 min 8,7 km/h (2 Bft)
22.09.2009 14:02 22,6 C 23,0 C 8,5 UV-I 3,8 C 53 % 52 % 100 % 1026,9 hPa 0,0 l/m 6,7 km/h (2 Bft) 2 min 12,8 km/h (3 Bft)
22.09.2009 14:04 22,6 C 22,9 C 9,1 UV-I 3,7 C 53 % 52 % 100 % 1026,9 hPa 0,0 l/m 6,3 km/h (2 Bft) 2 min 15,2 km/h (3 Bft)
22.09.2009 14:06 22,6 C 22,9 C 9,1 UV-I 3,5 C 52 % 52 % 100 % 1026,9 hPa 0,0 l/m 5,8 km/h (2 Bft) 2 min 5,5 km/h (1 Bft)
22.09.2009 14:08 22,7 C 23,1 C 11,1 UV-I 3,3 C 52 % 53 % 94 % 1026,9 hPa 0,0 l/m 6,3 km/h (2 Bft) 2 min 11,3 km/h (2 Bft)
22.09.2009 14:10 22,8 C 23,1 C 11,1 UV-I 3,5 C 52 % 53 % 100 % 1026,9 hPa 0,0 l/m 6,3 km/h (2 Bft) 2 min 5,8 km/h (2 Bft)
22.09.2009 14:12 22,8 C 23,2 C 11,1 UV-I 3,8 C 52 % 52 % 100 % 1026,9 hPa 0,0 l/m 5,8 km/h (2 Bft) 2 min 6,5 km/h (2 Bft)
22.09.2009 14:14 22,9 C 23,2 C 11,5 UV-I 3,9 C 52 % 52 % 100 % 1026,9 hPa 0,0 l/m 5,5 km/h (1 Bft) 2 min 9,6 km/h (2 Bft)
22.09.2009 14:18 23,0 C 23,2 C 11,6 UV-I 4,1 C 52 % 50 % 100 % 1028,6 hPa 0,0 l/m 6,5 km/h (2 Bft) 2 min 8,7 km/h (2 Bft)
22.09.2009 14:20 23,0 C 23,2 C 11,6 UV-I 4,1 C 52 % 50 % 100 % 1028,6 hPa 0,0 l/m 6,3 km/h (2 Bft) 2 min 8,4 km/h (2 Bft)
22.09.2009 14:22 23,1 C 23,3 C 11,6 UV-I 4,1 C 51 % 49 % 100 % 1028,6 hPa 0,0 l/m 6,7 km/h (2 Bft) 2 min 15,9 km/h (3 Bft)
22.09.2009 14:24 23,2 C 23,2 C 11,6 UV-I 4,2 C 51 % 50 % 100 % 1028,6 hPa 0,0 l/m 6,7 km/h (2 Bft) 2 min 5,3 km/h (1 Bft)
22.09.2009 14:26 23,2 C 23,3 C 11,6 UV-I 4,1 C 51 % 49 % 100 % 1028,6 hPa 0,0 l/m 6,5 km/h (2 Bft) 2 min 12,5 km/h (3 Bft)
22.09.2009 14:28 23,2 C 23,4 C 11,6 UV-I 4,2 C 50 % 48 % 100 % 1028,6 hPa 0,0 l/m 6,5 km/h (2 Bft) 2 min 8,7 km/h (2 Bft)
22.09.2009 14:30 23,4 C 23,5 C 11,6 UV-I 4,1 C 50 % 48 % 100 % 1028,6 hPa 0,0 l/m 6,5 km/h (2 Bft) 2 min 9,1 km/h (2 Bft)
22.09.2009 14:32 23,4 C 23,5 C 11,6 UV-I 4,2 C 50 % 48 % 100 % 1028,6 hPa 0,0 l/m 6,3 km/h (2 Bft) 2 min 6,3 km/h (2 Bft)
22.09.2009 14:34 23,5 C 23,5 C 11,9 UV-I 4,4 C 49 % 47 % 100 % 1028,6 hPa 0,0 l/m 5,8 km/h (2 Bft) 2 min 5,3 km/h (1 Bft)
22.09.2009 14:36 23,6 C 23,6 C 11,9 UV-I 4,4 C 49 % 47 % 100 % 1031,1 hPa 0,0 l/m 5,5 km/h (1 Bft) 2 min 2,6 km/h (1 Bft)
22.09.2009 14:38 23,6 C 23,6 C 11,9 UV-I 4,4 C 49 % 47 % 100 % 1031,1 hPa 0,0 l/m 5,3 km/h (1 Bft) 2 min 6,0 km/h (2 Bft)
22.09.2009 14:40 23,6 C 23,7 C 11,9 UV-I 4,5 C 48 % 48 % 100 % 1031,1 hPa 0,0 l/m 5,1 km/h (1 Bft) 2 min 10,3 km/h (2 Bft)
22.09.2009 14:42 23,7 C 23,7 C 11,9 UV-I 4,6 C 48 % 47 % 100 % 1031,1 hPa 0,0 l/m 5,1 km/h (1 Bft) 2 min 11,3 km/h (2 Bft)
22.09.2009 14:44 23,8 C 23,9 C 11,8 UV-I 4,5 C 48 % 48 % 100 % 1031,1 hPa 0,0 l/m 5,3 km/h (1 Bft) 2 min 3,6 km/h (1 Bft)
22.09.2009 14:46 23,8 C 23,8 C 11,8 UV-I 4,8 C 48 % 48 % 100 % 1031,1 hPa 0,0 l/m 4,8 km/h (1 Bft) 2 min 6,0 km/h (2 Bft)
22.09.2009 14:48 23,9 C 24,0 C 12,0 UV-I 4,8 C 48 % 47 % 100 % 1031,1 hPa 0,0 l/m 5,1 km/h (1 Bft) 2 min 4,6 km/h (1 Bft)
22.09.2009 14:50 23,9 C 24,1 C 12,0 UV-I 4,9 C 47 % 47 % 100 % 1031,1 hPa 0,0 l/m 4,6 km/h (1 Bft) 2 min 7,9 km/h (2 Bft)
22.09.2009 14:52 24,0 C 24,0 C 12,0 UV-I 5,2 C 47 % 46 % 100 % 1031,1 hPa 0,0 l/m 4,8 km/h (1 Bft) 2 min 13,0 km/h (3 Bft)
22.09.2009 14:54 24,0 C 24,0 C 12,0 UV-I 5,2 C 47 % 46 % 100 % 1031,1 hPa 0,0 l/m 4,1 km/h (1 Bft) 2 min 4,6 km/h (1 Bft)
22.09.2009 14:56 24,1 C 24,1 C 12,0 UV-I 5,3 C 47 % 47 % 100 % 1031,4 hPa 0,0 l/m 3,8 km/h (1 Bft) 2 min 7,0 km/h (2 Bft)
22.09.2009 14:58 24,2 C 24,1 C 12,0 UV-I 5,5 C 47 % 46 % 100 % 1031,4 hPa 0,0 l/m 4,8 km/h (1 Bft) 2 min 15,2 km/h (3 Bft)
22.09.2009 15:00 24,2 C 24,1 C 12,0 UV-I 5,3 C 46 % 46 % 100 % 1031,4 hPa 0,0 l/m 4,6 km/h (1 Bft) 2 min 6,5 km/h (2 Bft)
22.09.2009 15:02 24,3 C 24,1 C 12,0 UV-I 5,3 C 46 % 46 % 100 % 1031,4 hPa 0,0 l/m 4,8 km/h (1 Bft) 2 min 4,6 km/h (1 Bft)
22.09.2009 15:04 24,4 C 24,3 C 12,1 UV-I 5,1 C 46 % 47 % 100 % 1031,4 hPa 0,0 l/m 4,6 km/h (1 Bft) 2 min 4,8 km/h (1 Bft)
22.09.2009 15:06 24,4 C 24,3 C 12,1 UV-I 5,2 C 46 % 47 % 100 % 1031,4 hPa 0,0 l/m 4,6 km/h (1 Bft) 2 min 0,0 km/h (0 Bft)
22.09.2009 15:08 24,5 C 24,5 C 11,7 UV-I 5,2 C 46 % 47 % 100 % 1031,4 hPa 0,0 l/m 4,1 km/h (1 Bft) 2 min 4,3 km/h (1 Bft)
22.09.2009 15:10 24,6 C 24,5 C 11,7 UV-I 5,2 C 46 % 46 % 100 % 1031,4 hPa 0,0 l/m 4,3 km/h (1 Bft) 2 min 4,8 km/h (1 Bft)
22.09.2009 15:12 24,6 C 24,5 C 11,7 UV-I 4,9 C 46 % 45 % 100 % 1031,4 hPa 0,0 l/m 4,8 km/h (1 Bft) 2 min 6,0 km/h (2 Bft)
22.09.2009 15:16 24,7 C 24,7 C 11,5 UV-I 4,7 C 45 % 45 % 100 % 1030,7 hPa 0,0 l/m 4,8 km/h (1 Bft) 2 min 13,0 km/h (3 Bft)
22.09.2009 15:18 24,8 C 24,7 C 6,1 UV-I 4,8 C 45 % 44 % 100 % 1030,7 hPa 0,0 l/m 5,3 km/h (1 Bft) 2 min 8,2 km/h (2 Bft)
22.09.2009 15:20 24,8 C 24,5 C 6,1 UV-I 5,0 C 45 % 44 % 100 % 1030,7 hPa 0,0 l/m 5,1 km/h (1 Bft) 2 min 11,1 km/h (2 Bft)
22.09.2009 15:22 24,9 C 24,5 C 6,1 UV-I 4,9 C 45 % 44 % 100 % 1030,7 hPa 0,0 l/m 4,6 km/h (1 Bft) 2 min 13,5 km/h (3 Bft)
22.09.2009 15:24 24,9 C 24,5 C 2,5 UV-I 4,8 C 44 % 44 % 100 % 1030,7 hPa 0,0 l/m 5,1 km/h (1 Bft) 2 min 11,3 km/h (2 Bft)
22.09.2009 15:26 24,9 C 24,5 C 2,5 UV-I 4,8 C 44 % 44 % 100 % 1030,7 hPa 0,0 l/m 5,3 km/h (1 Bft) 2 min 8,7 km/h (2 Bft)
22.09.2009 15:28 25,0 C 24,7 C 2,2 UV-I 4,6 C 44 % 44 % 100 % 1030,7 hPa 0,0 l/m 4,8 km/h (1 Bft) 2 min 0,0 km/h (0 Bft)
22.09.2009 15:30 25,0 C 24,6 C 2,2 UV-I 4,8 C 44 % 44 % 100 % 1030,7 hPa 0,0 l/m 4,8 km/h (1 Bft) 2 min 7,2 km/h (2 Bft)
22.09.2009 15:34 25,2 C 24,7 C 2,2 UV-I 4,8 C 44 % 43 % 100 % 1030,7 hPa 0,0 l/m 4,6 km/h (1 Bft) 2 min 12,3 km/h (3 Bft)
22.09.2009 15:36 25,2 C 24,7 C 2,2 UV-I 4,9 C 43 % 43 % 100 % 1029,6 hPa 0,0 l/m 3,8 km/h (1 Bft) 2 min 5,5 km/h (1 Bft)
22.09.2009 15:38 25,2 C 24,7 C 2,1 UV-I 4,9 C 43 % 43 % 100 % 1029,6 hPa 0,0 l/m 4,3 km/h (1 Bft) 2 min 9,9 km/h (2 Bft)
22.09.2009 15:40 25,2 C 24,7 C 2,1 UV-I 4,7 C 43 % 43 % 100 % 1029,6 hPa 0,0 l/m 4,8 km/h (1 Bft) 2 min 11,1 km/h (2 Bft)
22.09.2009 15:42 25,2 C 24,7 C 2,1 UV-I 4,5 C 43 % 43 % 100 % 1029,6 hPa 0,0 l/m 5,1 km/h (1 Bft) 2 min 6,7 km/h (2 Bft)
22.09.2009 15:44 25,4 C 24,7 C 2,1 UV-I 4,5 C 43 % 43 % 100 % 1029,6 hPa 0,0 l/m 4,6 km/h (1 Bft) 2 min 8,4 km/h (2 Bft)
22.09.2009 15:46 25,4 C 24,6 C 2,1 UV-I 4,7 C 43 % 43 % 100 % 1029,6 hPa 0,0 l/m 4,8 km/h (1 Bft) 2 min 5,5 km/h (1 Bft)
22.09.2009 15:48 25,4 C 24,7 C 2,0 UV-I 4,7 C 42 % 43 % 100 % 1029,6 hPa 0,0 l/m 4,8 km/h (1 Bft) 2 min 5,5 km/h (1 Bft)
22.09.2009 15:50 25,5 C 24,7 C 2,0 UV-I 4,7 C 42 % 44 % 100 % 1029,6 hPa 0,0 l/m 4,6 km/h (1 Bft) 2 min 7,5 km/h (2 Bft)
22.09.2009 15:52 25,6 C 24,8 C 2,0 UV-I 4,6 C 43 % 44 % 100 % 1029,6 hPa 0,0 l/m 4,3 km/h (1 Bft) 2 min 20,5 km/h (4 Bft)
22.09.2009 15:54 25,6 C 24,9 C 1,8 UV-I 4,5 C 42 % 44 % 100 % 1029,6 hPa 0,0 l/m 4,3 km/h (1 Bft) 2 min 6,3 km/h (2 Bft)
22.09.2009 15:58 25,7 C 24,8 C 1,8 UV-I 4,4 C 42 % 44 % 100 % 1029,9 hPa 0,0 l/m 4,8 km/h (1 Bft) 2 min 7,9 km/h (2 Bft)
22.09.2009 16:00 25,8 C 24,9 C 1,8 UV-I 4,3 C 42 % 44 % 100 % 1029,9 hPa 0,0 l/m 4,6 km/h (1 Bft) 2 min 0,0 km/h (0 Bft)
22.09.2009 16:02 25,8 C 24,8 C 1,8 UV-I 4,4 C 42 % 43 % 100 % 1029,9 hPa 0,0 l/m 5,1 km/h (1 Bft) 2 min 8,7 km/h (2 Bft)
22.09.2009 16:06 25,8 C 24,7 C 1,7 UV-I 4,6 C 42 % 44 % 100 % 1029,9 hPa 0,0 l/m 4,6 km/h (1 Bft) 2 min 5,1 km/h (1 Bft)
22.09.2009 16:08 25,8 C 24,7 C 1,5 UV-I 4,5 C 42 % 43 % 100 % 1029,9 hPa 0,0 l/m 5,1 km/h (1 Bft) 2 min 7,9 km/h (2 Bft)
22.09.2009 16:10 25,9 C 24,7 C 1,5 UV-I 4,4 C 42 % 44 % 100 % 1029,9 hPa 0,0 l/m 4,6 km/h (1 Bft) 2 min 0,0 km/h (0 Bft)
22.09.2009 16:16 26,0 C 24,7 C 1,8 UV-I 4,8 C 42 % 43 % 100 % 1030,0 hPa 0,0 l/m 4,6 km/h (1 Bft) 2 min 12,3 km/h (3 Bft)
22.09.2009 16:18 26,0 C 24,6 C 1,8 UV-I 4,8 C 42 % 44 % 100 % 1030,0 hPa 0,0 l/m 4,3 km/h (1 Bft) 2 min 3,1 km/h (1 Bft)
22.09.2009 16:20 26,1 C 24,6 C 1,8 UV-I 4,8 C 42 % 44 % 100 % 1030,0 hPa 0,0 l/m 4,1 km/h (1 Bft) 2 min 9,9 km/h (2 Bft)
22.09.2009 16:22 26,0 C 24,6 C 1,8 UV-I 4,8 C 42 % 44 % 100 % 1030,0 hPa 0,0 l/m 4,1 km/h (1 Bft) 2 min 6,7 km/h (2 Bft)
22.09.2009 16:24 26,1 C 24,6 C 1,5 UV-I 4,8 C 42 % 45 % 100 % 1030,0 hPa 0,0 l/m 4,6 km/h (1 Bft) 2 min 5,1 km/h (1 Bft)
22.09.2009 16:26 26,1 C 24,7 C 1,5 UV-I 4,7 C 42 % 45 % 100 % 1030,0 hPa 0,0 l/m 4,1 km/h (1 Bft) 2 min 5,3 km/h (1 Bft)
22.09.2009 16:28 26,2 C 24,7 C 1,3 UV-I 4,7 C 42 % 45 % 100 % 1030,0 hPa 0,0 l/m 3,1 km/h (1 Bft) 2 min 6,0 km/h (2 Bft)
22.09.2009 16:30 26,1 C 24,7 C 1,3 UV-I 4,9 C 42 % 44 % 100 % 1030,0 hPa 0,0 l/m 2,9 km/h (1 Bft) 2 min 4,1 km/h (1 Bft)
22.09.2009 16:32 26,1 C 24,7 C 1,3 UV-I 5,0 C 42 % 44 % 100 % 1030,0 hPa 0,0 l/m 2,9 km/h (1 Bft) 2 min 2,6 km/h (1 Bft)
22.09.2009 16:34 26,2 C 24,6 C 1,3 UV-I 5,2 C 42 % 45 % 100 % 1030,0 hPa 0,0 l/m 2,9 km/h (1 Bft) 2 min 17,8 km/h (3 Bft)
22.09.2009 16:36 26,2 C 24,7 C 1,3 UV-I 5,2 C 42 % 44 % 100 % 1029,0 hPa 0,0 l/m 2,6 km/h (1 Bft) 2 min 0,0 km/h (0 Bft)
22.09.2009 16:38 26,2 C 24,7 C 1,2 UV-I 5,2 C 42 % 43 % 100 % 1029,0 hPa 0,0 l/m 3,1 km/h (1 Bft) 2 min 7,0 km/h (2 Bft)
22.09.2009 16:40 26,2 C 24,6 C 1,2 UV-I 5,2 C 41 % 43 % 100 % 1029,0 hPa 0,0 l/m 3,6 km/h (1 Bft) 2 min 6,7 km/h (2 Bft)
22.09.2009 16:42 26,3 C 24,7 C 1,2 UV-I 5,0 C 41 % 42 % 100 % 1029,0 hPa 0,0 l/m 4,1 km/h (1 Bft) 2 min 5,5 km/h (1 Bft)
22.09.2009 16:44 26,3 C 24,5 C 1,4 UV-I 5,1 C 41 % 42 % 100 % 1029,0 hPa 0,0 l/m 4,1 km/h (1 Bft) 2 min 4,6 km/h (1 Bft)
22.09.2009 16:46 26,3 C 24,5 C 1,4 UV-I 4,9 C 41 % 42 % 100 % 1029,0 hPa 0,0 l/m 3,8 km/h (1 Bft) 2 min 0,0 km/h (0 Bft)
22.09.2009 16:48 26,3 C 24,4 C 1,4 UV-I 5,0 C 41 % 42 % 100 % 1029,0 hPa 0,0 l/m 3,6 km/h (1 Bft) 2 min 4,1 km/h (1 Bft)
22.09.2009 16:50 26,2 C 24,4 C 1,4 UV-I 5,2 C 41 % 42 % 100 % 1029,0 hPa 0,0 l/m 3,4 km/h (1 Bft) 2 min 4,1 km/h (1 Bft)
22.09.2009 16:52 26,2 C 24,5 C 1,4 UV-I 5,1 C 41 % 43 % 100 % 1029,0 hPa 0,0 l/m 3,1 km/h (1 Bft) 2 min 5,8 km/h (2 Bft)
22.09.2009 16:54 26,2 C 24,4 C 1,2 UV-I 5,3 C 41 % 43 % 100 % 1029,0 hPa 0,0 l/m 2,6 km/h (1 Bft) 2 min 6,3 km/h (2 Bft)
22.09.2009 16:56 26,2 C 24,3 C 1,2 UV-I 5,3 C 41 % 42 % 100 % 1027,9 hPa 0,0 l/m 2,9 km/h (1 Bft) 2 min 5,8 km/h (2 Bft)
22.09.2009 16:58 26,2 C 24,3 C 1,3 UV-I 5,1 C 41 % 43 % 100 % 1027,9 hPa 0,0 l/m 2,9 km/h (1 Bft) 2 min 4,1 km/h (1 Bft)
22.09.2009 17:00 26,2 C 24,3 C 1,3 UV-I 5,1 C 41 % 43 % 100 % 1027,9 hPa 0,0 l/m 3,1 km/h (1 Bft) 2 min 4,1 km/h (1 Bft)
22.09.2009 17:02 26,2 C 24,2 C 1,3 UV-I 5,2 C 41 % 43 % 100 % 1027,9 hPa 0,0 l/m 3,4 km/h (1 Bft) 2 min 5,8 km/h (2 Bft)
22.09.2009 17:04 26,1 C 24,2 C 1,0 UV-I 5,1 C 41 % 43 % 100 % 1027,9 hPa 0,0 l/m 3,6 km/h (1 Bft) 2 min 2,6 km/h (1 Bft)
22.09.2009 17:06 26,0 C 24,1 C 1,0 UV-I 5,1 C 41 % 43 % 100 % 1027,9 hPa 0,0 l/m 3,4 km/h (1 Bft) 2 min 3,4 km/h (1 Bft)
22.09.2009 17:08 26,0 C 24,1 C 1,1 UV-I 5,1 C 41 % 44 % 100 % 1027,9 hPa 0,0 l/m 3,4 km/h (1 Bft) 2 min 7,9 km/h (2 Bft)
22.09.2009 17:10 25,9 C 24,1 C 1,1 UV-I 5,1 C 41 % 44 % 100 % 1027,9 hPa 0,0 l/m 3,1 km/h (1 Bft) 2 min 2,4 km/h (1 Bft)
22.09.2009 17:12 25,9 C 24,0 C 1,1 UV-I 5,3 C 41 % 44 % 100 % 1027,9 hPa 0,0 l/m 2,9 km/h (1 Bft) 2 min 6,3 km/h (2 Bft)
22.09.2009 17:14 25,8 C 24,1 C 1,2 UV-I 5,2 C 41 % 45 % 100 % 1027,9 hPa 0,0 l/m 2,4 km/h (1 Bft) 2 min 5,8 km/h (2 Bft)
22.09.2009 17:16 25,8 C 24,1 C 1,2 UV-I 5,2 C 42 % 45 % 100 % 1026,9 hPa 0,0 l/m 2,4 km/h (1 Bft) 2 min 7,5 km/h (2 Bft)
22.09.2009 17:18 25,7 C 24,1 C 1,1 UV-I 5,0 C 42 % 43 % 100 % 1026,9 hPa 0,0 l/m 3,4 km/h (1 Bft) 2 min 13,2 km/h (3 Bft)
22.09.2009 17:22 25,6 C 23,9 C 1,1 UV-I 4,5 C 42 % 43 % 100 % 1026,9 hPa 0,0 l/m 3,8 km/h (1 Bft) 2 min 6,7 km/h (2 Bft)
22.09.2009 17:26 25,5 C 23,9 C 1,0 UV-I 3,8 C 42 % 42 % 100 % 1026,9 hPa 0,0 l/m 5,1 km/h (1 Bft) 2 min 14,4 km/h (3 Bft)
22.09.2009 17:28 25,5 C 23,7 C 0,6 UV-I 3,8 C 42 % 43 % 100 % 1026,9 hPa 0,0 l/m 4,3 km/h (1 Bft) 2 min 0,0 km/h (0 Bft)
22.09.2009 17:30 25,4 C 23,7 C 0,6 UV-I 3,6 C 42 % 44 % 100 % 1026,9 hPa 0,0 l/m 3,8 km/h (1 Bft) 2 min 3,8 km/h (1 Bft)
22.09.2009 17:32 25,4 C 23,6 C 0,6 UV-I 3,4 C 42 % 43 % 97 % 1026,9 hPa 0,0 l/m 4,1 km/h (1 Bft) 2 min 8,2 km/h (2 Bft)
22.09.2009 17:34 25,2 C 23,7 C 0,5 UV-I 2,8 C 42 % 43 % 80 % 1026,9 hPa 0,0 l/m 3,8 km/h (1 Bft) 2 min 4,6 km/h (1 Bft)
22.09.2009 17:36 25,2 C 23,7 C 0,5 UV-I 2,3 C 42 % 43 % 66 % 1026,2 hPa 0,0 l/m 3,6 km/h (1 Bft) 0 min 4,8 km/h (1 Bft)
22.09.2009 17:38 25,2 C 23,6 C 0,7 UV-I 2,0 C 42 % 43 % 57 % 1026,2 hPa 0,0 l/m 3,1 km/h (1 Bft) 0 min 0,0 km/h (0 Bft)
22.09.2009 17:40 25,2 C 23,5 C 0,7 UV-I 1,8 C 42 % 43 % 51 % 1026,2 hPa 0,0 l/m 3,1 km/h (1 Bft) 0 min 2,6 km/h (1 Bft)
22.09.2009 17:48 25,0 C 23,4 C 0,6 UV-I 0,9 C 42 % 44 % 26 % 1026,2 hPa 0,0 l/m 2,6 km/h (1 Bft) 0 min 8,7 km/h (2 Bft)
22.09.2009 17:50 24,9 C 23,3 C 0,6 UV-I 0,8 C 42 % 45 % 23 % 1026,2 hPa 0,0 l/m 2,4 km/h (1 Bft) 0 min 0,0 km/h (0 Bft)
22.09.2009 17:52 24,9 C 23,2 C 0,6 UV-I 0,7 C 42 % 45 % 20 % 1026,2 hPa 0,0 l/m 2,2 km/h (1 Bft) 0 min 4,1 km/h (1 Bft)
22.09.2009 17:54 24,8 C 23,2 C 0,5 UV-I 0,6 C 42 % 44 % 17 % 1026,2 hPa 0,0 l/m 2,6 km/h (1 Bft) 0 min 5,8 km/h (2 Bft)
22.09.2009 17:56 24,8 C 23,2 C 0,5 UV-I 0,5 C 42 % 44 % 14 % 1025,6 hPa 0,0 l/m 2,9 km/h (1 Bft) 0 min 5,8 km/h (2 Bft)
22.09.2009 18:00 24,7 C 23,1 C 0,6 UV-I 0,3 C 42 % 44 % 9 % 1025,6 hPa 0,0 l/m 2,9 km/h (1 Bft) 0 min 4,8 km/h (1 Bft)
22.09.2009 18:02 24,7 C 23,1 C 0,6 UV-I 0,1 C 43 % 44 % 3 % 1025,6 hPa 0,0 l/m 3,4 km/h (1 Bft) 0 min 7,2 km/h (2 Bft)
22.09.2009 18:04 24,7 C 23,1 C 0,2 UV-I 0,0 C 43 % 43 % 0 % 1025,6 hPa 0,0 l/m 4,6 km/h (1 Bft) 0 min 6,3 km/h (2 Bft)
22.09.2009 18:06 24,6 C 23,0 C 0,2 UV-I 0,0 C 43 % 43 % 0 % 1025,6 hPa 0,0 l/m 4,8 km/h (1 Bft) 0 min 6,3 km/h (2 Bft)
22.09.2009 18:08 24,6 C 23,1 C 0,2 UV-I 0,0 C 42 % 44 % 0 % 1025,6 hPa 0,0 l/m 4,8 km/h (1 Bft) 0 min 8,2 km/h (2 Bft)
22.09.2009 18:10 24,6 C 23,0 C 0,2 UV-I 0,0 C 43 % 44 % 0 % 1025,6 hPa 0,0 l/m 4,8 km/h (1 Bft) 0 min 0,0 km/h (0 Bft)
22.09.2009 18:12 24,5 C 22,9 C 0,2 UV-I 0,0 C 43 % 44 % 0 % 1025,6 hPa 0,0 l/m 4,6 km/h (1 Bft) 0 min 8,7 km/h (2 Bft)
22.09.2009 18:14 24,5 C 22,9 C 0,3 UV-I 0,0 C 43 % 44 % 0 % 1025,6 hPa 0,0 l/m 4,1 km/h (1 Bft) 0 min 4,3 km/h (1 Bft)
22.09.2009 18:16 24,4 C 22,9 C 0,3 UV-I 0,0 C 43 % 44 % 0 % 1025,4 hPa 0,0 l/m 3,4 km/h (1 Bft) 0 min 4,8 km/h (1 Bft)
22.09.2009 18:18 24,4 C 22,9 C 0,2 UV-I 0,0 C 43 % 44 % 0 % 1025,4 hPa 0,0 l/m 2,9 km/h (1 Bft) 0 min 6,5 km/h (2 Bft)
22.09.2009 18:20 24,4 C 22,9 C 0,2 UV-I 0,0 C 43 % 45 % 0 % 1025,4 hPa 0,0 l/m 2,4 km/h (1 Bft) 0 min 4,3 km/h (1 Bft)
22.09.2009 18:22 24,4 C 22,7 C 0,2 UV-I 0,1 C 43 % 45 % 3 % 1025,4 hPa 0,0 l/m 2,4 km/h (1 Bft) 0 min 0,0 km/h (0 Bft)
22.09.2009 18:24 24,4 C 22,7 C 0,3 UV-I 0,1 C 43 % 45 % 3 % 1025,4 hPa 0,0 l/m 2,2 km/h (1 Bft) 0 min 2,6 km/h (1 Bft)
22.09.2009 18:26 24,3 C 22,6 C 0,3 UV-I 0,1 C 43 % 45 % 3 % 1025,4 hPa 0,0 l/m 2,2 km/h (1 Bft) 0 min 2,6 km/h (1 Bft)
22.09.2009 18:28 24,3 C 22,7 C 0,2 UV-I 0,0 C 43 % 45 % 0 % 1025,4 hPa 0,0 l/m 2,2 km/h (1 Bft) 0 min 0,0 km/h (0 Bft)
22.09.2009 18:30 24,2 C 22,6 C 0,2 UV-I 0,0 C 43 % 45 % 0 % 1025,4 hPa 0,0 l/m 1,9 km/h (1 Bft) 0 min 2,9 km/h (1 Bft)
22.09.2009 18:32 24,2 C 22,5 C 0,2 UV-I 0,0 C 43 % 46 % 0 % 1025,4 hPa 0,0 l/m 1,7 km/h (1 Bft) 0 min 2,9 km/h (1 Bft)
22.09.2009 18:34 24,2 C 22,5 C 0,0 UV-I 0,0 C 44 % 46 % 0 % 1025,4 hPa 0,0 l/m 1,7 km/h (1 Bft) 0 min 0,0 km/h (0 Bft)
22.09.2009 18:36 24,2 C 22,4 C 0,0 UV-I 0,0 C 44 % 46 % 0 % 1025,4 hPa 0,0 l/m 1,9 km/h (1 Bft) 0 min 3,4 km/h (1 Bft)
22.09.2009 18:38 24,1 C 22,3 C 0,0 UV-I 0,0 C 44 % 46 % 0 % 1025,4 hPa 0,0 l/m 1,7 km/h (1 Bft) 0 min 5,1 km/h (1 Bft)
22.09.2009 18:40 24,1 C 22,3 C 0,0 UV-I 0,0 C 44 % 47 % 0 % 1025,4 hPa 0,0 l/m 1,4 km/h (1 Bft) 0 min 2,4 km/h (1 Bft)
22.09.2009 18:44 24,1 C 22,2 C 0,1 UV-I 0,0 C 44 % 47 % 0 % 1025,4 hPa 0,0 l/m 1,7 km/h (1 Bft) 0 min 0,0 km/h (0 Bft)
22.09.2009 18:48 24,0 C 22,2 C 0,0 UV-I 0,0 C 44 % 48 % 0 % 1025,4 hPa 0,0 l/m 1,4 km/h (1 Bft) 0 min 4,3 km/h (1 Bft)
22.09.2009 18:50 24,0 C 22,1 C 0,0 UV-I 0,0 C 44 % 48 % 0 % 1025,4 hPa 0,0 l/m 1,2 km/h (1 Bft) 0 min 2,6 km/h (1 Bft)
22.09.2009 18:52 24,0 C 22,0 C 0,0 UV-I 0,0 C 44 % 49 % 0 % 1025,4 hPa 0,0 l/m 1,0 km/h (0 Bft) 0 min 2,6 km/h (1 Bft)
22.09.2009 18:54 24,0 C 22,1 C 0,0 UV-I 0,0 C 44 % 49 % 0 % 1025,4 hPa 0,0 l/m 1,0 km/h (0 Bft) 0 min 0,0 km/h (0 Bft)
22.09.2009 18:56 23,9 C 22,0 C 0,0 UV-I 0,0 C 44 % 49 % 0 % 1025,4 hPa 0,0 l/m 1,0 km/h (0 Bft) 0 min 0,0 km/h (0 Bft)
22.09.2009 18:58 23,9 C 21,9 C 0,0 UV-I 0,0 C 45 % 49 % 0 % 1025,4 hPa 0,0 l/m 0,7 km/h (0 Bft) 0 min 0,0 km/h (0 Bft)
22.09.2009 19:00 23,8 C 21,9 C 0,0 UV-I 0,0 C 44 % 49 % 0 % 1025,4 hPa 0,0 l/m 0,7 km/h (0 Bft) 0 min 0,0 km/h (0 Bft)
22.09.2009 19:02 23,8 C 21,9 C 0,0 UV-I 0,0 C 45 % 49 % 0 % 1025,4 hPa 0,0 l/m 1,0 km/h (0 Bft) 0 min 0,0 km/h (0 Bft)
22.09.2009 19:06 23,8 C 21,6 C 0,0 UV-I 0,0 C 45 % 49 % 0 % 1025,4 hPa 0,0 l/m 0,7 km/h (0 Bft) 0 min 3,8 km/h (1 Bft)
22.09.2009 19:08 23,8 C 21,6 C 0,0 UV-I 0,0 C 45 % 49 % 0 % 1025,4 hPa 0,0 l/m 0,5 km/h (0 Bft) 0 min 0,0 km/h (0 Bft)
22.09.2009 19:10 23,7 C 21,6 C 0,0 UV-I 0,0 C 45 % 49 % 0 % 1025,4 hPa 0,0 l/m 0,7 km/h (0 Bft) 0 min 0,0 km/h (0 Bft)
22.09.2009 19:12 23,7 C 21,5 C 0,0 UV-I 0,0 C 45 % 50 % 0 % 1025,4 hPa 0,0 l/m 0,5 km/h (0 Bft) 0 min 0,0 km/h (0 Bft)
22.09.2009 19:14 23,7 C 21,4 C 0,0 UV-I 0,0 C 45 % 50 % 0 % 1025,4 hPa 0,0 l/m 0,5 km/h (0 Bft) 0 min 0,0 km/h (0 Bft)
22.09.2009 19:16 23,7 C 21,4 C 0,0 UV-I 0,0 C 45 % 50 % 0 % 1025,2 hPa 0,0 l/m 0,5 km/h (0 Bft) 0 min 0,0 km/h (0 Bft)
22.09.2009 19:20 23,6 C 21,2 C 0,0 UV-I 0,0 C 45 % 50 % 0 % 1025,2 hPa 0,0 l/m 0,2 km/h (0 Bft) 0 min 0,0 km/h (0 Bft)
22.09.2009 19:22 23,6 C 21,2 C 0,0 UV-I 0,0 C 45 % 51 % 0 % 1025,2 hPa 0,0 l/m 0,0 km/h (0 Bft) 0 min 0,0 km/h (0 Bft)
22.09.2009 19:24 23,6 C 21,1 C 0,0 UV-I 0,0 C 45 % 51 % 0 % 1025,2 hPa 0,0 l/m 0,0 km/h (0 Bft) 0 min 0,0 km/h (0 Bft)
22.09.2009 19:26 23,6 C 21,0 C 0,0 UV-I 0,0 C 45 % 51 % 0 % 1025,2 hPa 0,0 l/m 0,2 km/h (0 Bft) 0 min 0,0 km/h (0 Bft)
22.09.2009 19:28 23,5 C 20,9 C 0,0 UV-I 0,0 C 46 % 51 % 0 % 1025,2 hPa 0,0 l/m 0,0 km/h (0 Bft) 0 min 0,0 km/h (0 Bft)
22.09.2009 19:30 23,5 C 20,9 C 0,0 UV-I 0,0 C 45 % 51 % 0 % 1025,2 hPa 0,0 l/m 0,0 km/h (0 Bft) 0 min 0,0 km/h (0 Bft)
22.09.2009 19:32 23,5 C 20,8 C 0,0 UV-I 0,0 C 46 % 51 % 0 % 1025,2 hPa 0,0 l/m 0,2 km/h (0 Bft) 0 min 2,6 km/h (1 Bft)
22.09.2009 19:34 23,5 C 20,9 C 0,0 UV-I 0,0 C 46 % 52 % 0 % 1025,2 hPa 0,0 l/m 0,2 km/h (0 Bft) 0 min 0,0 km/h (0 Bft)
22.09.2009 19:36 23,4 C 20,7 C 0,0 UV-I 0,0 C 46 % 52 % 0 % 1025,1 hPa 0,0 l/m 0,0 km/h (0 Bft) 0 min 0,0 km/h (0 Bft)
22.09.2009 19:38 23,4 C 20,7 C 0,0 UV-I 0,0 C 46 % 52 % 0 % 1025,1 hPa 0,0 l/m 0,0 km/h (0 Bft) 0 min 0,0 km/h (0 Bft)
22.09.2009 19:40 23,4 C 20,6 C 0,0 UV-I 0,0 C 46 % 53 % 0 % 1025,1 hPa 0,0 l/m 0,0 km/h (0 Bft) 0 min 0,0 km/h (0 Bft)
22.09.2009 19:42 23,4 C 20,5 C 0,0 UV-I 0,0 C 46 % 53 % 0 % 1025,1 hPa 0,0 l/m 0,0 km/h (0 Bft) 0 min 0,0 km/h (0 Bft)
22.09.2009 19:46 23,2 C 20,4 C 0,0 UV-I 0,0 C 46 % 54 % 0 % 1025,1 hPa 0,0 l/m 0,0 km/h (0 Bft) 0 min 0,0 km/h (0 Bft)
22.09.2009 19:48 23,2 C 20,2 C 0,0 UV-I 0,0 C 46 % 55 % 0 % 1025,1 hPa 0,0 l/m 0,0 km/h (0 Bft) 0 min 0,0 km/h (0 Bft)
22.09.2009 19:50 23,3 C 20,3 C 0,0 UV-I 0,0 C 46 % 55 % 0 % 1025,1 hPa 0,0 l/m 0,0 km/h (0 Bft) 0 min 0,0 km/h (0 Bft)
22.09.2009 19:52 23,3 C 20,1 C 0,0 UV-I 0,0 C 46 % 56 % 0 % 1025,1 hPa 0,0 l/m 0,0 km/h (0 Bft) 0 min 0,0 km/h (0 Bft)
22.09.2009 19:56 23,2 C 19,9 C 0,0 UV-I 0,0 C 47 % 57 % 0 % 1025,4 hPa 0,0 l/m 0,0 km/h (0 Bft) 0 min 0,0 km/h (0 Bft)
22.09.2009 19:58 23,2 C 19,9 C 0,0 UV-I 0,0 C 47 % 57 % 0 % 1025,4 hPa 0,0 l/m 0,0 km/h (0 Bft) 0 min 0,0 km/h (0 Bft)
22.09.2009 20:00 23,2 C 19,7 C 0,0 UV-I 0,0 C 47 % 58 % 0 % 1025,4 hPa 0,0 l/m 0,0 km/h (0 Bft) 0 min 0,0 km/h (0 Bft)
22.09.2009 20:04 23,1 C 19,5 C 0,0 UV-I 0,0 C 48 % 58 % 0 % 1025,4 hPa 0,0 l/m 0,0 km/h (0 Bft) 0 min 0,0 km/h (0 Bft)
22.09.2009 20:06 23,1 C 19,3 C 0,0 UV-I 0,0 C 48 % 59 % 0 % 1025,4 hPa 0,0 l/m 0,0 km/h (0 Bft) 0 min 0,0 km/h (0 Bft)
22.09.2009 20:08 23,1 C 19,2 C 0,0 UV-I 0,0 C 48 % 59 % 0 % 1025,4 hPa 0,0 l/m 0,0 km/h (0 Bft) 0 min 0,0 km/h (0 Bft)
22.09.2009 20:10 23,0 C 19,3 C 0,0 UV-I 0,0 C 48 % 59 % 0 % 1025,4 hPa 0,0 l/m 0,0 km/h (0 Bft) 0 min 0,0 km/h (0 Bft)
22.09.2009 20:12 23,0 C 19,1 C 0,0 UV-I 0,0 C 48 % 59 % 0 % 1025,4 hPa 0,0 l/m 0,0 km/h (0 Bft) 0 min 0,0 km/h (0 Bft)
22.09.2009 20:14 23,0 C 19,1 C 0,0 UV-I 0,0 C 48 % 60 % 0 % 1025,4 hPa 0,0 l/m 0,0 km/h (0 Bft) 0 min 0,0 km/h (0 Bft)
22.09.2009 20:16 22,9 C 18,9 C 0,0 UV-I 0,0 C 48 % 60 % 0 % 1025,6 hPa 0,0 l/m 0,0 km/h (0 Bft) 0 min 0,0 km/h (0 Bft)
22.09.2009 20:18 22,9 C 18,8 C 0,0 UV-I 0,0 C 48 % 60 % 0 % 1025,6 hPa 0,0 l/m 0,0 km/h (0 Bft) 0 min 0,0 km/h (0 Bft)
22.09.2009 20:22 22,9 C 18,7 C 0,0 UV-I 0,0 C 49 % 61 % 0 % 1025,6 hPa 0,0 l/m 0,0 km/h (0 Bft) 0 min 0,0 km/h (0 Bft)
22.09.2009 20:28 22,8 C 18,4 C 0,0 UV-I 0,0 C 49 % 62 % 0 % 1025,6 hPa 0,0 l/m 0,0 km/h (0 Bft) 0 min 0,0 km/h (0 Bft)
22.09.2009 20:32 22,8 C 18,3 C 0,0 UV-I 0,0 C 49 % 63 % 0 % 1025,6 hPa 0,0 l/m 0,0 km/h (0 Bft) 0 min 0,0 km/h (0 Bft)
22.09.2009 20:34 22,8 C 18,1 C 0,0 UV-I 0,0 C 49 % 63 % 0 % 1025,6 hPa 0,0 l/m 0,0 km/h (0 Bft) 0 min 0,0 km/h (0 Bft)
22.09.2009 20:36 22,8 C 18,0 C 0,0 UV-I 0,0 C 49 % 64 % 0 % 1025,5 hPa 0,0 l/m 0,0 km/h (0 Bft) 0 min 0,0 km/h (0 Bft)
22.09.2009 20:38 22,7 C 18,0 C 0,0 UV-I 0,0 C 49 % 64 % 0 % 1025,5 hPa 0,0 l/m 0,0 km/h (0 Bft) 0 min 0,0 km/h (0 Bft)
22.09.2009 20:40 22,7 C 17,9 C 0,0 UV-I 0,0 C 49 % 64 % 0 % 1025,5 hPa 0,0 l/m 0,0 km/h (0 Bft) 0 min 0,0 km/h (0 Bft)
22.09.2009 20:42 22,7 C 17,9 C 0,0 UV-I 0,0 C 50 % 65 % 0 % 1025,5 hPa 0,0 l/m 0,0 km/h (0 Bft) 0 min 0,0 km/h (0 Bft)
22.09.2009 20:46 22,6 C 17,7 C 0,0 UV-I 0,0 C 50 % 65 % 0 % 1025,5 hPa 0,0 l/m 0,0 km/h (0 Bft) 0 min 0,0 km/h (0 Bft)
22.09.2009 20:48 22,6 C 17,5 C 0,0 UV-I 0,0 C 50 % 65 % 0 % 1025,5 hPa 0,0 l/m 0,0 km/h (0 Bft) 0 min 0,0 km/h (0 Bft)
22.09.2009 20:50 22,6 C 17,4 C 0,0 UV-I 0,0 C 50 % 66 % 0 % 1025,5 hPa 0,0 l/m 0,0 km/h (0 Bft) 0 min 0,0 km/h (0 Bft)
22.09.2009 20:52 22,6 C 17,4 C 0,0 UV-I 0,0 C 50 % 66 % 0 % 1025,5 hPa 0,0 l/m 0,0 km/h (0 Bft) 0 min 0,0 km/h (0 Bft)
22.09.2009 20:54 22,6 C 17,3 C 0,0 UV-I 0,0 C 50 % 66 % 0 % 1025,5 hPa 0,0 l/m 0,0 km/h (0 Bft) 0 min 0,0 km/h (0 Bft)
22.09.2009 20:56 22,6 C 17,2 C 0,0 UV-I 0,0 C 50 % 67 % 0 % 1025,8 hPa 0,0 l/m 0,0 km/h (0 Bft) 0 min 0,0 km/h (0 Bft)
22.09.2009 20:58 22,5 C 17,1 C 0,0 UV-I 0,0 C 50 % 67 % 0 % 1025,8 hPa 0,0 l/m 0,0 km/h (0 Bft) 0 min 0,0 km/h (0 Bft)
22.09.2009 21:00 22,5 C 17,1 C 0,0 UV-I 0,0 C 50 % 67 % 0 % 1025,8 hPa 0,0 l/m 0,0 km/h (0 Bft) 0 min 0,0 km/h (0 Bft)
22.09.2009 21:02 22,5 C 17,1 C 0,0 UV-I 0,0 C 51 % 68 % 0 % 1025,8 hPa 0,0 l/m 0,0 km/h (0 Bft) 0 min 0,0 km/h (0 Bft)
22.09.2009 21:04 22,5 C 16,9 C 0,0 UV-I 0,0 C 51 % 68 % 0 % 1025,8 hPa 0,0 l/m 0,0 km/h (0 Bft) 0 min 0,0 km/h (0 Bft)
22.09.2009 21:06 22,4 C 16,8 C 0,0 UV-I 0,0 C 51 % 68 % 0 % 1025,8 hPa 0,0 l/m 0,0 km/h (0 Bft) 0 min 0,0 km/h (0 Bft)
22.09.2009 21:10 22,4 C 16,7 C 0,0 UV-I 0,0 C 51 % 69 % 0 % 1025,8 hPa 0,0 l/m 0,0 km/h (0 Bft) 0 min 0,0 km/h (0 Bft)
22.09.2009 21:12 22,4 C 16,7 C 0,0 UV-I 0,0 C 51 % 69 % 0 % 1025,8 hPa 0,0 l/m 0,0 km/h (0 Bft) 0 min 0,0 km/h (0 Bft)
22.09.2009 21:14 22,4 C 16,5 C 0,0 UV-I 0,0 C 51 % 69 % 0 % 1025,8 hPa 0,0 l/m 0,0 km/h (0 Bft) 0 min 0,0 km/h (0 Bft)
22.09.2009 21:16 22,4 C 16,5 C 0,0 UV-I 0,0 C 51 % 70 % 0 % 1025,8 hPa 0,0 l/m 0,0 km/h (0 Bft) 0 min 0,0 km/h (0 Bft)
22.09.2009 21:18 22,4 C 16,4 C 0,0 UV-I 0,0 C 51 % 70 % 0 % 1025,8 hPa 0,0 l/m 0,0 km/h (0 Bft) 0 min 0,0 km/h (0 Bft)
22.09.2009 21:20 22,4 C 16,4 C 0,0 UV-I 0,0 C 51 % 70 % 0 % 1025,8 hPa 0,0 l/m 0,0 km/h (0 Bft) 0 min 0,0 km/h (0 Bft)
22.09.2009 21:24 22,3 C 16,2 C 0,0 UV-I 0,0 C 51 % 70 % 0 % 1025,8 hPa 0,0 l/m 0,0 km/h (0 Bft) 0 min 0,0 km/h (0 Bft)
22.09.2009 21:26 22,3 C 16,2 C 0,0 UV-I 0,0 C 51 % 70 % 0 % 1025,8 hPa 0,0 l/m 0,0 km/h (0 Bft) 0 min 0,0 km/h (0 Bft)
22.09.2009 21:28 22,3 C 16,1 C 0,0 UV-I 0,0 C 51 % 71 % 0 % 1025,8 hPa 0,0 l/m 0,0 km/h (0 Bft) 0 min 0,0 km/h (0 Bft)
22.09.2009 21:30 22,3 C 16,0 C 0,0 UV-I 0,0 C 51 % 71 % 0 % 1025,8 hPa 0,0 l/m 0,0 km/h (0 Bft) 0 min 0,0 km/h (0 Bft)
22.09.2009 21:32 22,3 C 16,0 C 0,0 UV-I 0,0 C 51 % 71 % 0 % 1025,8 hPa 0,0 l/m 0,0 km/h (0 Bft) 0 min 0,0 km/h (0 Bft)
22.09.2009 21:34 22,2 C 15,9 C 0,0 UV-I 0,0 C 51 % 71 % 0 % 1025,8 hPa 0,0 l/m 0,0 km/h (0 Bft) 0 min 0,0 km/h (0 Bft)
22.09.2009 21:36 22,2 C 15,9 C 0,0 UV-I 0,0 C 51 % 71 % 0 % 1026,1 hPa 0,0 l/m 0,0 km/h (0 Bft) 0 min 0,0 km/h (0 Bft)
22.09.2009 21:38 22,2 C 15,9 C 0,0 UV-I 0,0 C 51 % 71 % 0 % 1026,1 hPa 0,0 l/m 0,0 km/h (0 Bft) 0 min 0,0 km/h (0 Bft)
22.09.2009 21:40 22,2 C 15,8 C 0,0 UV-I 0,0 C 51 % 71 % 0 % 1026,1 hPa 0,0 l/m 0,0 km/h (0 Bft) 0 min 0,0 km/h (0 Bft)
22.09.2009 21:42 22,2 C 15,7 C 0,0 UV-I 0,0 C 51 % 71 % 0 % 1026,1 hPa 0,0 l/m 0,0 km/h (0 Bft) 0 min 0,0 km/h (0 Bft)
22.09.2009 21:44 22,2 C 15,7 C 0,0 UV-I 0,0 C 51 % 71 % 0 % 1026,1 hPa 0,0 l/m 0,0 km/h (0 Bft) 0 min 0,0 km/h (0 Bft)
22.09.2009 21:46 22,2 C 15,6 C 0,0 UV-I 0,0 C 51 % 72 % 0 % 1026,1 hPa 0,0 l/m 0,0 km/h (0 Bft) 0 min 0,0 km/h (0 Bft)
22.09.2009 21:48 22,2 C 15,5 C 0,0 UV-I 0,0 C 52 % 72 % 0 % 1026,1 hPa 0,0 l/m 0,0 km/h (0 Bft) 0 min 0,0 km/h (0 Bft)
22.09.2009 21:53 22,1 C 15,4 C 0,0 UV-I 0,0 C 52 % 72 % 0 % 1026,1 hPa 0,0 l/m 0,0 km/h (0 Bft) 0 min 0,0 km/h (0 Bft)
22.09.2009 21:54 22,1 C 15,4 C 0,0 UV-I 0,0 C 52 % 72 % 0 % 1026,1 hPa 0,0 l/m 0,0 km/h (0 Bft) 0 min 0,0 km/h (0 Bft)
22.09.2009 21:56 22,1 C 15,4 C 0,0 UV-I 0,0 C 52 % 73 % 0 % 1025,8 hPa 0,0 l/m 0,0 km/h (0 Bft) 0 min 0,0 km/h (0 Bft)
22.09.2009 21:58 22,1 C 15,3 C 0,0 UV-I 0,0 C 52 % 73 % 0 % 1025,8 hPa 0,0 l/m 0,0 km/h (0 Bft) 0 min 0,0 km/h (0 Bft)
22.09.2009 22:00 22,0 C 15,3 C 0,0 UV-I 0,0 C 52 % 73 % 0 % 1025,8 hPa 0,0 l/m 0,0 km/h (0 Bft) 0 min 0,0 km/h (0 Bft)
22.09.2009 22:02 22,0 C 15,2 C 0,0 UV-I 0,0 C 52 % 73 % 0 % 1025,8 hPa 0,0 l/m 0,0 km/h (0 Bft) 0 min 0,0 km/h (0 Bft)
22.09.2009 22:04 22,0 C 15,3 C 0,0 UV-I 0,0 C 52 % 73 % 0 % 1025,8 hPa 0,0 l/m 0,0 km/h (0 Bft) 0 min 0,0 km/h (0 Bft)
22.09.2009 22:06 22,0 C 15,2 C 0,0 UV-I 0,0 C 52 % 73 % 0 % 1025,8 hPa 0,0 l/m 0,0 km/h (0 Bft) 0 min 0,0 km/h (0 Bft)
22.09.2009 22:08 22,0 C 15,1 C 0,0 UV-I 0,0 C 52 % 73 % 0 % 1025,8 hPa 0,0 l/m 0,0 km/h (0 Bft) 0 min 0,0 km/h (0 Bft)
22.09.2009 22:10 22,0 C 15,1 C 0,0 UV-I 0,0 C 52 % 73 % 0 % 1025,8 hPa 0,0 l/m 0,0 km/h (0 Bft) 0 min 0,0 km/h (0 Bft)
22.09.2009 22:12 22,0 C 15,1 C 0,0 UV-I 0,0 C 52 % 74 % 0 % 1025,8 hPa 0,0 l/m 0,0 km/h (0 Bft) 0 min 0,0 km/h (0 Bft)
22.09.2009 22:14 22,0 C 15,1 C 0,0 UV-I 0,0 C 52 % 74 % 0 % 1025,8 hPa 0,0 l/m 0,0 km/h (0 Bft) 0 min 0,0 km/h (0 Bft)
22.09.2009 22:16 22,0 C 15,1 C 0,0 UV-I 0,0 C 52 % 74 % 0 % 1025,9 hPa 0,0 l/m 0,0 km/h (0 Bft) 0 min 0,0 km/h (0 Bft)
22.09.2009 22:18 22,0 C 15,0 C 0,0 UV-I 0,0 C 52 % 74 % 0 % 1025,9 hPa 0,0 l/m 0,0 km/h (0 Bft) 0 min 0,0 km/h (0 Bft)
22.09.2009 22:20 22,0 C 14,9 C 0,0 UV-I 0,0 C 52 % 74 % 0 % 1025,9 hPa 0,0 l/m 0,0 km/h (0 Bft) 0 min 0,0 km/h (0 Bft)
22.09.2009 22:22 22,0 C 14,9 C 0,0 UV-I 0,0 C 52 % 75 % 0 % 1025,9 hPa 0,0 l/m 0,0 km/h (0 Bft) 0 min 0,0 km/h (0 Bft)
22.09.2009 22:24 21,9 C 14,8 C 0,0 UV-I 0,0 C 52 % 75 % 0 % 1025,9 hPa 0,0 l/m 0,0 km/h (0 Bft) 0 min 0,0 km/h (0 Bft)
22.09.2009 22:26 21,9 C 14,9 C 0,0 UV-I 0,0 C 52 % 75 % 0 % 1025,9 hPa 0,0 l/m 0,0 km/h (0 Bft) 0 min 0,0 km/h (0 Bft)
22.09.2009 22:28 21,9 C 14,8 C 0,0 UV-I 0,0 C 52 % 75 % 0 % 1025,9 hPa 0,0 l/m 0,0 km/h (0 Bft) 0 min 0,0 km/h (0 Bft)
22.09.2009 22:30 21,8 C 14,7 C 0,0 UV-I 0,0 C 52 % 75 % 0 % 1025,9 hPa 0,0 l/m 0,0 km/h (0 Bft) 0 min 0,0 km/h (0 Bft)
22.09.2009 22:32 21,9 C 14,7 C 0,0 UV-I 0,0 C 52 % 75 % 0 % 1025,9 hPa 0,0 l/m 0,0 km/h (0 Bft) 0 min 0,0 km/h (0 Bft)
22.09.2009 22:34 21,8 C 14,7 C 0,0 UV-I 0,0 C 52 % 75 % 0 % 1025,9 hPa 0,0 l/m 0,0 km/h (0 Bft) 0 min 0,0 km/h (0 Bft)
22.09.2009 22:36 21,8 C 14,7 C 0,0 UV-I 0,0 C 52 % 75 % 0 % 1026,1 hPa 0,0 l/m 0,0 km/h (0 Bft) 0 min 0,0 km/h (0 Bft)
22.09.2009 22:38 21,8 C 14,6 C 0,0 UV-I 0,0 C 52 % 75 % 0 % 1026,1 hPa 0,0 l/m 0,0 km/h (0 Bft) 0 min 0,0 km/h (0 Bft)
22.09.2009 22:40 21,8 C 14,5 C 0,0 UV-I 0,0 C 52 % 75 % 0 % 1026,1 hPa 0,0 l/m 0,0 km/h (0 Bft) 0 min 0,0 km/h (0 Bft)
22.09.2009 22:42 21,8 C 14,5 C 0,0 UV-I 0,0 C 52 % 75 % 0 % 1026,1 hPa 0,0 l/m 0,0 km/h (0 Bft) 0 min 0,0 km/h (0 Bft)
22.09.2009 22:44 21,8 C 14,4 C 0,0 UV-I 0,0 C 52 % 76 % 0 % 1026,1 hPa 0,0 l/m 0,0 km/h (0 Bft) 0 min 0,0 km/h (0 Bft)
22.09.2009 22:46 21,8 C 14,4 C 0,0 UV-I 0,0 C 52 % 76 % 0 % 1026,1 hPa 0,0 l/m 0,0 km/h (0 Bft) 0 min 0,0 km/h (0 Bft)
22.09.2009 22:48 21,8 C 14,4 C 0,0 UV-I 0,0 C 52 % 76 % 0 % 1026,1 hPa 0,0 l/m 0,0 km/h (0 Bft) 0 min 0,0 km/h (0 Bft)
22.09.2009 22:50 21,7 C 14,4 C 0,0 UV-I 0,0 C 52 % 76 % 0 % 1026,1 hPa 0,0 l/m 0,0 km/h (0 Bft) 0 min 0,0 km/h (0 Bft)
22.09.2009 22:54 21,7 C 14,3 C 0,0 UV-I 0,0 C 52 % 76 % 0 % 1026,1 hPa 0,0 l/m 0,0 km/h (0 Bft) 0 min 0,0 km/h (0 Bft)
22.09.2009 22:56 21,7 C 14,3 C 0,0 UV-I 0,0 C 52 % 76 % 0 % 1025,7 hPa 0,0 l/m 0,0 km/h (0 Bft) 0 min 0,0 km/h (0 Bft)
22.09.2009 22:58 21,7 C 14,3 C 0,0 UV-I 0,0 C 52 % 76 % 0 % 1025,7 hPa 0,0 l/m 0,0 km/h (0 Bft) 0 min 0,0 km/h (0 Bft)
22.09.2009 23:00 21,6 C 14,3 C 0,0 UV-I 0,0 C 52 % 76 % 0 % 1025,7 hPa 0,0 l/m 0,0 km/h (0 Bft) 0 min 0,0 km/h (0 Bft)
22.09.2009 23:02 21,6 C 14,3 C 0,0 UV-I 0,0 C 52 % 76 % 0 % 1025,7 hPa 0,0 l/m 0,0 km/h (0 Bft) 0 min 0,0 km/h (0 Bft)
22.09.2009 23:04 21,6 C 14,3 C 0,0 UV-I 0,0 C 52 % 76 % 0 % 1025,7 hPa 0,0 l/m 0,0 km/h (0 Bft) 0 min 0,0 km/h (0 Bft)
22.09.2009 23:06 21,6 C 14,3 C 0,0 UV-I 0,0 C 52 % 76 % 0 % 1025,7 hPa 0,0 l/m 0,0 km/h (0 Bft) 0 min 0,0 km/h (0 Bft)
22.09.2009 23:08 21,6 C 14,3 C 0,0 UV-I 0,0 C 52 % 76 % 0 % 1025,7 hPa 0,0 l/m 0,0 km/h (0 Bft) 0 min 0,0 km/h (0 Bft)
22.09.2009 23:10 21,6 C 14,2 C 0,0 UV-I 0,0 C 52 % 76 % 0 % 1025,7 hPa 0,0 l/m 0,0 km/h (0 Bft) 0 min 0,0 km/h (0 Bft)
22.09.2009 23:12 21,6 C 14,2 C 0,0 UV-I 0,0 C 52 % 75 % 0 % 1025,7 hPa 0,0 l/m 0,0 km/h (0 Bft) 0 min 0,0 km/h (0 Bft)
22.09.2009 23:14 21,6 C 14,2 C 0,0 UV-I 0,0 C 52 % 75 % 0 % 1025,7 hPa 0,0 l/m 0,0 km/h (0 Bft) 0 min 0,0 km/h (0 Bft)
22.09.2009 23:16 21,6 C 14,3 C 0,0 UV-I 0,0 C 52 % 75 % 0 % 1025,8 hPa 0,0 l/m 0,0 km/h (0 Bft) 0 min 0,0 km/h (0 Bft)
22.09.2009 23:18 21,6 C 14,3 C 0,0 UV-I 0,0 C 51 % 75 % 0 % 1025,8 hPa 0,0 l/m 0,0 km/h (0 Bft) 0 min 0,0 km/h (0 Bft)
22.09.2009 23:20 21,5 C 14,3 C 0,0 UV-I 0,0 C 52 % 75 % 0 % 1025,8 hPa 0,0 l/m 0,0 km/h (0 Bft) 0 min 0,0 km/h (0 Bft)
22.09.2009 23:22 21,5 C 14,3 C 0,0 UV-I 0,0 C 52 % 75 % 0 % 1025,8 hPa 0,0 l/m 0,0 km/h (0 Bft) 0 min 0,0 km/h (0 Bft)
22.09.2009 23:24 21,5 C 14,2 C 0,0 UV-I 0,0 C 52 % 75 % 0 % 1025,8 hPa 0,0 l/m 0,0 km/h (0 Bft) 0 min 0,0 km/h (0 Bft)
22.09.2009 23:26 21,5 C 14,3 C 0,0 UV-I 0,0 C 52 % 76 % 0 % 1025,8 hPa 0,0 l/m 0,0 km/h (0 Bft) 0 min 0,0 km/h (0 Bft)
22.09.2009 23:28 21,5 C 14,1 C 0,0 UV-I 0,0 C 52 % 76 % 0 % 1025,8 hPa 0,0 l/m 0,5 km/h (0 Bft) 0 min 3,8 km/h (1 Bft)
22.09.2009 23:30 21,5 C 14,2 C 0,0 UV-I 0,0 C 52 % 75 % 0 % 1025,8 hPa 0,0 l/m 1,0 km/h (0 Bft) 0 min 6,7 km/h (2 Bft)
22.09.2009 23:32 21,5 C 14,3 C 0,0 UV-I 0,0 C 52 % 75 % 0 % 1025,8 hPa 0,0 l/m 1,2 km/h (1 Bft) 0 min 2,6 km/h (1 Bft)
22.09.2009 23:34 21,5 C 14,2 C 0,0 UV-I 0,0 C 52 % 75 % 0 % 1025,8 hPa 0,0 l/m 1,4 km/h (1 Bft) 0 min 0,0 km/h (0 Bft)
22.09.2009 23:36 21,5 C 14,3 C 0,0 UV-I 0,0 C 52 % 75 % 0 % 1026,1 hPa 0,0 l/m 1,4 km/h (1 Bft) 0 min 0,0 km/h (0 Bft)
22.09.2009 23:38 21,5 C 14,2 C 0,0 UV-I 0,0 C 52 % 75 % 0 % 1026,1 hPa 0,0 l/m 1,4 km/h (1 Bft) 0 min 0,0 km/h (0 Bft)
22.09.2009 23:40 21,5 C 14,3 C 0,0 UV-I 0,0 C 52 % 75 % 0 % 1026,1 hPa 0,0 l/m 0,7 km/h (0 Bft) 0 min 0,0 km/h (0 Bft)
22.09.2009 23:42 21,5 C 14,2 C 0,0 UV-I 0,0 C 52 % 75 % 0 % 1026,1 hPa 0,0 l/m 0,5 km/h (0 Bft) 0 min 0,0 km/h (0 Bft)
22.09.2009 23:44 21,5 C 14,1 C 0,0 UV-I 0,0 C 52 % 75 % 0 % 1026,1 hPa 0,0 l/m 0,0 km/h (0 Bft) 0 min 0,0 km/h (0 Bft)
22.09.2009 23:46 21,4 C 14,1 C 0,0 UV-I 0,0 C 52 % 75 % 0 % 1026,1 hPa 0,0 l/m 0,0 km/h (0 Bft) 0 min 0,0 km/h (0 Bft)
22.09.2009 23:50 21,4 C 14,0 C 0,0 UV-I 0,0 C 52 % 75 % 0 % 1026,1 hPa 0,0 l/m 0,0 km/h (0 Bft) 0 min 0,0 km/h (0 Bft)
22.09.2009 23:52 21,4 C 14,0 C 0,0 UV-I 0,0 C 52 % 75 % 0 % 1026,1 hPa 0,0 l/m 0,0 km/h (0 Bft) 0 min 0,0 km/h (0 Bft)
22.09.2009 23:54 21,4 C 14,1 C 0,0 UV-I 0,0 C 52 % 75 % 0 % 1026,1 hPa 0,0 l/m 0,0 km/h (0 Bft) 0 min 0,0 km/h (0 Bft)
22.09.2009 23:56 21,4 C 14,0 C 0,0 UV-I 0,0 C 52 % 75 % 0 % 1026,1 hPa 0,0 l/m 0,0 km/h (0 Bft) 0 min 0,0 km/h (0 Bft)
22.09.2009 23:58 21,4 C 14,0 C 0,0 UV-I 0,0 C 52 % 75 % 0 % 1026,1 hPa 0,0 l/m 0,0 km/h (0 Bft) 0 min 0,0 km/h (0 Bft)
_ Min-Zeit 08:48 07:36 00:00 00:00 16:40 16:42 00:00 19:36 - 00:00 - 00:00
Minimum _ 19,9 C 9,2 C 0,0 UV-I 0,0 C 41 % 42 % 0 % 1025,1 hPa - 0,0 km/h (0 Bft) - 0,0 km/h (0 Bft)
_ Max-Zeit 16:42 15:54 13:38 10:12 10:22 08:36 09:50 14:56 00:00 13:16 09:48 13:30
Maximum _ 26,3 C 24,9 C 12,1 UV-I 8,1 C 58 % 93 % 100 % 1031,4 hPa 0,0 l/m 7,2 km/h
NO (2 Bft)
2 min 21,2 km/h
W (4 Bft)
Durchschnitt _ 22,0 C 15,8 C 1,9 UV-I 1,7 C 52 % 73 % 35 % 1026,6 hPa #0,0 l/m 1,9 km/h (1 Bft) #7:14 h 3,0 km/h (1 Bft)
© 2012 W. Hausmann